EA1FJG Weather Reports


Display with metric or nautical units.
time (UTC)temp
F
wind
direction
speed
MPH
gust
MPH
rain 1hr
in
rain 24hr
in
rain mn
in
humidity
%
barometer
mb
20260901114503 72 301 1.0 3.0 0.00 0.00 0.00 78 1021.5
20260901114403 72 307 2.0 4.0 0.00 0.00 0.00 79 1021.6
20260901114303 72 304 2.0 4.0 0.00 0.00 0.00 78 1021.4
20260901114203 72 306 2.0 4.0 0.00 0.00 0.00 78 1021.4
20260901114103 72 300 2.0 4.0 0.00 0.00 0.00 79 1021.6
20260901114003 73 298 2.0 4.0 0.00 0.00 0.00 78 1021.5
20260901113903 73 291 2.0 4.0 0.00 0.00 0.00 78 1021.7
20260901113803 73 291 2.0 4.0 0.00 0.00 0.00 79 1021.7
20260901113703 73 295 2.0 4.0 0.00 0.00 0.00 78 1021.7
20260901113603 73 301 2.0 4.0 0.00 0.00 0.00 78 1021.7
20260901113524 73 298 2.0 4.0 0.00 0.00 0.00 78 1021.5
20260901113403 73 304 2.0 3.0 0.00 0.00 0.00 79 1021.7
20260901113303 72 306 2.0 3.0 0.00 0.00 0.00 81 1021.8
20260901113203 72 305 2.0 3.0 0.00 0.00 0.00 80 1021.7
20260901113103 71 310 2.0 3.0 0.00 0.00 0.00 80 1021.8
20260901113003 71 315 2.0 3.0 0.00 0.00 0.00 81 1021.8
20260901112903 71 315 2.0 3.0 0.00 0.00 0.00 81 1021.8
20260901112803 71 319 2.0 6.0 0.00 0.00 0.00 80 1021.8
20260901112703 71 329 2.0 6.0 0.00 0.00 0.00 80 1021.7
20260901112603 71 329 2.0 6.0 0.00 0.00 0.00 80 1021.7
20260901112503 71 330 2.0 6.0 0.00 0.00 0.00 80 1021.9
20260901112403 71 335 2.0 6.0 0.00 0.00 0.00 81 1021.8
20260901112306 71 334 2.0 6.0 0.00 0.00 0.00 80 1021.8
20260901112224 71 336 2.0 6.0 0.00 0.00 0.00 80 1021.7
20260901112103 72 337 2.0 6.0 0.00 0.00 0.00 80 1021.8
20260901112003 72 337 2.0 6.0 0.00 0.00 0.00 80 1021.8
20260901111903 72 344 2.0 6.0 0.00 0.00 0.00 80 1021.8
20260901111803 72 353 1.0 4.0 0.00 0.00 0.00 80 1021.7
20260901111703 72 360 1.0 4.0 0.00 0.00 0.00 79 1021.7
20260901111603 72 360 1.0 4.0 0.00 0.00 0.00 79 1021.7
20260901111503 71 2 1.0 4.0 0.00 0.00 0.00 81 1021.9
20260901111403 71 5 1.0 4.0 0.00 0.00 0.00 80 1022.0
20260901111303 71 8 1.0 4.0 0.00 0.00 0.00 80 1021.8
20260901111203 71 8 1.0 4.0 0.00 0.00 0.00 80 1021.8
20260901111103 72 3 1.0 4.0 0.00 0.00 0.00 79 1021.9
20260901111003 72 353 1.0 4.0 0.00 0.00 0.00 79 1022.2
20260901110903 71 340 1.0 3.0 0.00 0.00 0.00 80 1022.0
20260901110803 71 340 1.0 3.0 0.00 0.00 0.00 80 1022.0
20260901110703 71 340 1.0 3.0 0.00 0.00 0.00 81 1022.1
20260901110624 71 342 1.0 3.0 0.00 0.00 0.00 81 1022.3
20260901110503 71 344 2.0 4.0 0.00 0.00 0.00 81 1022.2
20260901110403 71 344 2.0 4.0 0.00 0.00 0.00 81 1022.2
20260901110303 71 343 2.0 4.0 0.00 0.00 0.00 81 1022.5
20260901110203 71 346 2.0 4.0 0.00 0.00 0.00 80 1022.1
20260901110103 71 346 2.0 4.0 0.00 0.00 0.00 80 1022.1
20260901110003 71 356 2.0 4.0 0.00 0.00 0.00 80 1022.4
20260901105903 71 356 2.0 4.0 0.00 0.00 0.00 81 1022.3
20260901105803 71 356 2.0 4.0 0.00 0.00 0.00 81 1022.4
20260901105703 72 357 2.0 4.0 0.00 0.00 0.00 80 1022.5
20260901105603 72 355 2.0 4.0 0.00 0.00 0.00 80 1022.4
20260901105524 72 358 2.0 4.0 0.00 0.00 0.00 80 1022.5
20260901105403 72 1 2.0 6.0 0.00 0.00 0.00 79 1022.3
20260901105305 72 2 2.0 6.0 0.00 0.00 0.00 79 1022.4
20260901105203 72 2 2.0 7.0 0.00 0.00 0.00 79 1022.4
20260901105103 72 2 3.0 7.0 0.00 0.00 0.00 78 1022.5
20260901105003 72 360 3.0 7.0 0.00 0.00 0.00 78 1022.5
20260901104903 72 360 2.0 7.0 0.00 0.00 0.00 78 1022.6
20260901104803 72 1 2.0 7.0 0.00 0.00 0.00 77 1022.3
20260901104724 72 1 2.0 7.0 0.00 0.00 0.00 77 1022.3
20260901104603 72 3 2.0 7.0 0.00 0.00 0.00 77 1022.5
20260901104503 72 3 2.0 7.0 0.00 0.00 0.00 77 1022.5
20260901104403 73 1 2.0 7.0 0.00 0.00 0.00 77 1022.6
20260901104303 73 359 2.0 7.0 0.00 0.00 0.00 77 1022.5
20260901104203 74 360 2.0 7.0 0.00 0.00 0.00 76 1022.5
20260901104103 74 1 2.0 4.0 0.00 0.00 0.00 76 1022.6
20260901104003 74 360 2.0 4.0 0.00 0.00 0.00 76 1022.4
20260901103903 74 2 2.0 4.0 0.00 0.00 0.00 76 1022.4
20260901103803 74 359 2.0 4.0 0.00 0.00 0.00 77 1022.5
20260901103703 74 359 2.0 4.0 0.00 0.00 0.00 77 1022.5
20260901103603 74 360 2.0 4.0 0.00 0.00 0.00 76 1022.5
20260901103503 74 360 2.0 4.0 0.00 0.00 0.00 75 1022.5
20260901103403 75 357 2.0 4.0 0.00 0.00 0.00 75 1022.5
20260901103303 75 360 2.0 4.0 0.00 0.00 0.00 74 1022.5
20260901103203 74 2 1.0 3.0 0.00 0.00 0.00 76 1022.7
20260901103124 74 2 1.0 3.0 0.00 0.00 0.00 76 1022.7
20260901103003 73 355 2.0 3.0 0.00 0.00 0.00 78 1022.6
20260901102924 73 355 2.0 3.0 0.00 0.00 0.00 78 1022.6
20260901102824 73 354 2.0 3.0 0.00 0.00 0.00 77 1022.7
20260901102703 72 357 2.0 4.0 0.00 0.00 0.00 79 1022.7
20260901102603 72 357 2.0 4.0 0.00 0.00 0.00 79 1022.7
20260901102524 72 355 2.0 4.0 0.00 0.00 0.00 79 1022.8
20260901102403 72 354 2.0 4.0 0.00 0.00 0.00 79 1022.6
20260901102324 71 357 2.0 4.0 0.00 0.00 0.00 81 1022.7
20260901102224 71 343 2.0 4.0 0.00 0.00 0.00 82 1022.5
20260901102103 71 343 2.0 4.0 0.00 0.00 0.00 81 1022.7
20260901102003 71 343 2.0 4.0 0.00 0.00 0.00 81 1022.7
20260901101903 71 343 2.0 4.0 0.00 0.00 0.00 81 1022.6
20260901101803 72 346 3.0 4.0 0.00 0.00 0.00 81 1022.8
20260901101724 72 345 2.0 4.0 0.00 0.00 0.00 80 1022.6
20260901101603 72 346 2.0 4.0 0.00 0.00 0.00 80 1022.7
20260901101503 71 348 2.0 4.0 0.00 0.00 0.00 82 1022.5
20260901101403 71 352 2.0 4.0 0.00 0.00 0.00 81 1022.7
20260901101303 71 358 2.0 4.0 0.00 0.00 0.00 81 1022.8
20260901101203 71 358 2.0 4.0 0.00 0.00 0.00 81 1022.8
20260901101124 71 9 2.0 4.0 0.00 0.00 0.00 81 1022.7
20260901101003 72 20 2.0 4.0 0.00 0.00 0.00 80 1022.7
20260901100924 72 27 2.0 4.0 0.00 0.00 0.00 79 1022.7
20260901100803 72 33 1.0 4.0 0.00 0.00 0.00 78 1022.7
20260901100703 71 37 1.0 3.0 0.00 0.00 0.00 79 1022.7
20260901100624 71 24 1.0 2.0 0.00 0.00 0.00 81 1022.7
20260901100503 71 22 1.0 2.0 0.00 0.00 0.00 80 1022.7
20260901100403 71 22 1.0 2.0 0.00 0.00 0.00 80 1022.7
20260901100303 71 23 1.0 2.0 0.00 0.00 0.00 81 1022.7
20260901100203 71 21 1.0 2.0 0.00 0.00 0.00 81 1022.7
20260901100124 71 21 1.0 2.0 0.00 0.00 0.00 81 1022.7
20260901100003 71 13 1.0 2.0 0.00 0.00 0.00 82 1022.7
20260901095903 70 10 1.0 2.0 0.00 0.00 0.00 82 1022.6
20260901095803 70 8 1.0 3.0 0.00 0.00 0.00 82 1022.8
20260901095703 70 9 2.0 3.0 0.00 0.00 0.00 83 1022.7
20260901095603 70 7 2.0 3.0 0.00 0.00 0.00 83 1022.6
20260901095503 70 6 2.0 3.0 0.00 0.00 0.00 82 1022.8
20260901095403 70 6 1.0 3.0 0.00 0.00 0.00 82 1022.7
20260901095306 70 5 1.0 3.0 0.00 0.00 0.00 82 1022.8
20260901095203 70 4 2.0 4.0 0.00 0.00 0.00 83 1022.6
20260901095103 70 3 2.0 4.0 0.00 0.00 0.00 83 1022.8
20260901095003 70 3 1.0 4.0 0.00 0.00 0.00 83 1022.8
20260901094903 70 5 2.0 4.0 0.00 0.00 0.00 83 1022.7
20260901094803 69 360 1.0 4.0 0.00 0.00 0.00 83 1022.7
20260901094703 69 360 1.0 4.0 0.00 0.00 0.00 83 1022.8
20260901094603 69 360 1.0 4.0 0.00 0.00 0.00 83 1022.8
20260901094503 69 360 1.0 4.0 0.00 0.00 0.00 83 1022.8
20260901094403 69 358 1.0 4.0 0.00 0.00 0.00 84 1022.8
20260901094303 69 358 1.0 4.0 0.00 0.00 0.00 83 1022.6
20260901094203 69 360 1.0 4.0 0.00 0.00 0.00 83 1022.9
20260901094103 69 4 1.0 3.0 0.00 0.00 0.00 83 1022.6
20260901094003 69 7 1.0 3.0 0.00 0.00 0.00 83 1022.8
20260901093903 69 13 1.0 3.0 0.00 0.00 0.00 83 1022.8
20260901093803 70 16 1.0 3.0 0.00 0.00 0.00 82 1022.7
20260901093703 70 24 1.0 2.0 0.00 0.00 0.00 82 1022.8
20260901093603 70 28 1.0 2.0 0.00 0.00 0.00 81 1022.8
20260901093503 70 34 1.0 2.0 0.00 0.00 0.00 81 1022.7
20260901093403 70 44 1.0 2.0 0.00 0.00 0.00 83 1022.8
20260901093303 69 49 1.0 2.0 0.00 0.00 0.00 83 1022.8
20260901093203 69 51 1.0 2.0 0.00 0.00 0.00 83 1022.9
20260901093124 69 51 1.0 2.0 0.00 0.00 0.00 83 1022.9
20260901093003 69 58 1.0 3.0 0.00 0.00 0.00 84 1022.9
20260901092903 68 58 1.0 3.0 0.00 0.00 0.00 85 1022.9
20260901092803 68 62 1.0 3.0 0.00 0.00 0.00 85 1023.0
20260901092703 68 65 1.0 3.0 0.00 0.00 0.00 85 1022.9
20260901092603 68 65 1.0 3.0 0.00 0.00 0.00 85 1022.9
20260901092503 68 66 2.0 3.0 0.00 0.00 0.00 85 1023.1
20260901092403 68 69 2.0 3.0 0.00 0.00 0.00 84 1022.8
20260901092324 68 70 2.0 3.0 0.00 0.00 0.00 85 1022.9
20260901092203 67 67 2.0 3.0 0.00 0.00 0.00 85 1022.9
20260901092103 67 68 1.0 3.0 0.00 0.00 0.00 85 1022.9
20260901092003 67 65 1.0 3.0 0.00 0.00 0.00 85 1022.9
20260901091903 67 60 1.0 3.0 0.00 0.00 0.00 85 1022.8
20260901091803 67 59 1.0 3.0 0.00 0.00 0.00 85 1022.8
20260901091724 67 51 1.0 3.0 0.00 0.00 0.00 85 1022.9
20260901091603 68 41 1.0 3.0 0.00 0.00 0.00 84 1022.9
20260901091503 68 36 1.0 3.0 0.00 0.00 0.00 84 1022.7
20260901091403 67 22 1.0 3.0 0.00 0.00 0.00 86 1023.0
20260901091324 67 22 1.0 3.0 0.00 0.00 0.00 86 1022.9
20260901091203 67 20 1.0 3.0 0.00 0.00 0.00 87 1023.0
20260901091103 66 20 1.0 3.0 0.00 0.00 0.00 86 1022.8
20260901091003 66 30 1.0 3.0 0.00 0.00 0.00 86 1022.9
20260901090903 66 43 1.0 3.0 0.00 0.00 0.00 87 1022.8
20260901090803 66 43 1.0 3.0 0.00 0.00 0.00 87 1022.8
20260901062309 55 0 0.0 0.0 0.00 0.00 0.00 99 1022.1
20260901062203 55 0 0.0 0.0 0.00 0.00 0.00 99 1022.0
20260901062103 55 0 0.0 0.0 0.00 0.00 0.00 99 1022.1
20260901062003 55 0 0.0 0.0 0.00 0.00 0.00 99 1022.1
20260901061903 55 0 0.0 0.0 0.00 0.00 0.00 99 1022.0
20260901061803 55 25 0.0 1.0 0.00 0.00 0.00 99 1022.0
20260901061724 55 25 0.0 1.0 0.00 0.00 0.00 99 1022.1
20260901061624 55 25 0.0 1.0 0.00 0.00 0.00 99 1021.9
20260901061503 55 25 0.0 1.0 0.00 0.00 0.00 99 1021.7
20260901061403 55 25 0.0 1.0 0.00 0.00 0.00 99 1022.0
20260901061324 55 25 0.0 1.0 0.00 0.00 0.00 99 1022.0
20260901061203 55 25 0.0 1.0 0.00 0.00 0.00 99 1021.8
20260901061103 55 25 0.0 1.0 0.00 0.00 0.00 99 1021.7
20260901061003 55 25 0.0 1.0 0.00 0.00 0.00 99 1021.7
20260901060903 55 25 0.0 1.0 0.00 0.00 0.00 99 1021.8
20260901060803 55 25 0.0 1.0 0.00 0.00 0.00 99 1021.8
20260901060703 55 0 0.0 0.0 0.00 0.00 0.00 99 1021.7
20260901060624 55 0 0.0 0.0 0.00 0.00 0.00 99 1021.9
20260901060524 55 0 0.0 0.0 0.00 0.00 0.00 99 1021.8
20260901060403 55 22 0.0 1.0 0.00 0.00 0.00 99 1021.9
20260901060324 55 22 0.0 1.0 0.00 0.00 0.00 99 1021.9
20260901060203 55 22 0.0 1.0 0.00 0.00 0.00 99 1021.7
20260901060104 55 22 0.0 1.0 0.00 0.00 0.00 99 1021.7
20260901060003 55 22 0.0 1.0 0.00 0.00 0.00 99 1021.7
20260901055903 55 22 0.0 1.0 0.00 0.00 0.00 99 1021.9
20260901055803 55 22 0.0 1.0 0.00 0.00 0.00 99 1021.9
20260901055703 55 22 0.0 1.0 0.00 0.00 0.00 99 1021.9
20260901055603 55 22 0.0 1.0 0.00 0.00 0.00 99 1021.9
20260901055503 55 22 0.0 1.0 0.00 0.00 0.00 99 1021.8
20260901055403 54 22 0.0 1.0 0.00 0.00 0.00 99 1021.7
20260901055306 54 0 0.0 0.0 0.00 0.00 0.00 99 1021.7
20260901055203 54 0 0.0 0.0 0.00 0.00 0.00 99 1021.8
20260901055124 54 0 0.0 0.0 0.00 0.00 0.00 99 1021.8
20260901055003 54 0 0.0 0.0 0.00 0.00 0.00 99 1021.8
20260901054903 54 0 0.0 0.0 0.00 0.00 0.00 99 1021.8
20260901054803 54 0 0.0 0.0 0.00 0.00 0.00 99 1021.8
20260901054703 54 0 0.0 0.0 0.00 0.00 0.00 99 1021.6
20260901054603 54 0 0.0 0.0 0.00 0.00 0.00 99 1021.7
20260901054524 54 0 0.0 0.0 0.00 0.00 0.00 99 1021.9
20260901054403 54 0 0.0 0.0 0.00 0.00 0.00 99 1021.7
20260901054303 54 0 0.0 0.0 0.00 0.00 0.00 99 1021.5
20260901054203 54 0 0.0 0.0 0.00 0.00 0.00 99 1021.8
20260901054103 54 0 0.0 0.0 0.00 0.00 0.00 99 1021.7
20260901054003 54 0 0.0 0.0 0.00 0.00 0.00 99 1021.7
20260901053903 54 0 0.0 0.0 0.00 0.00 0.00 99 1021.7
20260901053803 54 0 0.0 0.0 0.00 0.00 0.00 99 1021.8
20260901053703 54 0 0.0 0.0 0.00 0.00 0.00 99 1021.8
20260901053603 54 0 0.0 0.0 0.00 0.00 0.00 99 1021.7
20260901053503 54 0 0.0 0.0 0.00 0.00 0.00 99 1021.7
20260901053403 54 0 0.0 0.0 0.00 0.00 0.00 99 1021.7
20260901053303 54 23 0.0 1.0 0.00 0.00 0.00 99 1021.6
20260901053203 54 23 0.0 1.0 0.00 0.00 0.00 99 1021.6
20260901053103 54 23 0.0 1.0 0.00 0.00 0.00 99 1021.5
20260901053003 54 26 0.0 1.0 0.00 0.00 0.00 99 1021.6
20260901052903 54 21 0.0 1.0 0.00 0.00 0.00 99 1021.5
20260901052803 54 24 0.0 1.0 0.00 0.00 0.00 99 1021.5
20260901052703 55 24 0.0 1.0 0.00 0.00 0.00 99 1021.6
20260901052603 55 24 0.0 1.0 0.00 0.00 0.00 99 1021.4
20260901052503 55 24 0.0 1.0 0.00 0.00 0.00 99 1021.7
20260901052403 55 24 0.0 1.0 0.00 0.00 0.00 99 1021.7
20260901052306 55 24 0.0 1.0 0.00 0.00 0.00 99 1021.7
20260901052224 55 26 0.0 1.0 0.00 0.00 0.00 99 1021.6
20260901052124 55 26 0.0 1.0 0.00 0.00 0.00 99 1021.5
20260901052004 55 25 0.0 1.0 0.00 0.00 0.00 99 1021.4
20260901051903 55 31 0.0 1.0 0.00 0.00 0.00 99 1021.5
20260901051803 55 31 0.0 1.0 0.00 0.00 0.00 99 1021.4
20260901051703 55 31 0.0 1.0 0.00 0.00 0.00 99 1021.6
20260901051603 55 32 0.0 1.0 0.00 0.00 0.00 99 1021.6
20260901051503 55 33 0.0 1.0 0.00 0.00 0.00 99 1021.7
20260901051403 55 40 0.0 2.0 0.00 0.00 0.00 99 1021.7
20260901051303 55 40 0.0 2.0 0.00 0.00 0.00 99 1021.6
20260901051224 55 40 0.0 2.0 0.00 0.00 0.00 99 1021.6
20260901051103 55 39 1.0 2.0 0.00 0.00 0.00 99 1021.7
20260901051024 55 39 1.0 2.0 0.00 0.00 0.00 99 1021.7
20260901050903 55 39 1.0 2.0 0.00 0.00 0.00 99 1021.7
20260901050803 55 39 1.0 2.0 0.00 0.00 0.00 99 1021.7
20260901050703 55 39 1.0 2.0 0.00 0.00 0.00 99 1021.8
20260901050624 55 39 1.0 2.0 0.00 0.00 0.00 99 1021.6
20260901050503 55 44 1.0 2.0 0.00 0.00 0.00 99 1021.6
20260901050424 55 44 1.0 2.0 0.00 0.00 0.00 99 1021.8
20260901050303 55 41 1.0 1.0 0.00 0.00 0.00 99 1021.8
20260901050203 55 44 1.0 2.0 0.00 0.00 0.00 99 1021.7
20260901050124 55 44 1.0 2.0 0.00 0.00 0.00 99 1021.8
20260901050003 55 44 1.0 2.0 0.00 0.00 0.00 99 1021.7
20260901045903 55 44 1.0 2.0 0.00 0.00 0.00 99 1021.7
20260901045803 55 44 1.0 2.0 0.00 0.00 0.00 99 1021.6
20260901045703 55 44 1.0 2.0 0.00 0.00 0.00 99 1021.7
20260901045603 55 45 1.0 2.0 0.00 0.00 0.00 99 1021.9
20260901045503 55 40 1.0 2.0 0.00 0.00 0.00 99 1021.8
20260901045403 55 42 1.0 2.0 0.00 0.00 0.00 99 1021.7
20260901045306 55 42 1.0 2.0 0.00 0.00 0.00 99 1021.7
20260901045224 55 41 1.0 2.0 0.00 0.00 0.00 99 1021.9
20260901045103 55 38 1.0 2.0 0.00 0.00 0.00 99 1021.7
20260901045003 55 38 1.0 2.0 0.00 0.00 0.00 99 1021.7
20260901044924 55 39 1.0 2.0 0.00 0.00 0.00 99 1021.8
20260901044803 55 37 1.0 2.0 0.00 0.00 0.00 99 1021.7
20260901044703 55 37 1.0 2.0 0.00 0.00 0.00 99 1021.9
20260901044624 55 37 1.0 2.0 0.00 0.00 0.00 99 1021.8
20260901044505 55 37 1.0 2.0 0.00 0.00 0.00 99 1021.8
20260901044403 55 36 1.0 2.0 0.00 0.00 0.00 99 1021.8
20260901044303 55 34 1.0 1.0 0.00 0.00 0.00 99 1021.7
20260901044203 55 34 1.0 1.0 0.00 0.00 0.00 99 1021.7
20260901044103 55 39 1.0 2.0 0.00 0.00 0.00 99 1021.8
20260901044003 55 41 1.0 2.0 0.00 0.00 0.00 99 1021.8
20260901043903 55 40 1.0 2.0 0.00 0.00 0.00 99 1021.9
20260901043803 55 42 1.0 2.0 0.00 0.00 0.00 99 1021.9
20260901043703 55 42 1.0 2.0 0.00 0.00 0.00 99 1021.9
20260901043624 55 43 1.0 2.0 0.00 0.00 0.00 99 1021.8
20260901043503 55 43 1.0 2.0 0.00 0.00 0.00 99 1021.7
20260901043403 55 42 1.0 2.0 0.00 0.00 0.00 99 1021.9
20260901043303 55 42 1.0 2.0 0.00 0.00 0.00 99 1021.8
20260901043203 55 42 1.0 2.0 0.00 0.00 0.00 99 1021.9
20260901043103 55 42 1.0 2.0 0.00 0.00 0.00 99 1021.9
20260901043003 55 38 1.0 2.0 0.00 0.00 0.00 99 1021.8
20260901042924 55 36 1.0 2.0 0.00 0.00 0.00 99 1021.8
20260901042803 55 38 1.0 2.0 0.00 0.00 0.00 99 1021.9
20260901042703 55 37 1.0 2.0 0.00 0.00 0.00 99 1021.9
20260901042603 55 39 1.0 2.0 0.00 0.00 0.00 99 1021.9
20260901042503 55 39 1.0 2.0 0.00 0.00 0.00 99 1021.8
20260901042403 55 40 1.0 2.0 0.00 0.00 0.00 99 1021.8
20260901042324 55 40 1.0 2.0 0.00 0.00 0.00 99 1021.8
20260901042224 55 41 1.0 2.0 0.00 0.00 0.00 99 1021.6
20260901042124 55 41 1.0 2.0 0.00 0.00 0.00 99 1021.7
20260901042003 55 41 1.0 2.0 0.00 0.00 0.00 99 1021.8
20260901041924 55 41 1.0 2.0 0.00 0.00 0.00 99 1021.8
20260901041803 55 40 1.0 2.0 0.00 0.00 0.00 99 1021.5
20260901041703 55 40 1.0 2.0 0.00 0.00 0.00 99 1021.7
20260901041603 55 36 0.0 1.0 0.00 0.00 0.00 99 1021.7
20260901041503 55 36 0.0 1.0 0.00 0.00 0.00 99 1021.8
20260901041424 55 35 0.0 1.0 0.00 0.00 0.00 99 1021.7
20260901041303 55 35 0.0 1.0 0.00 0.00 0.00 99 1021.8
20260901041224 55 35 0.0 1.0 0.00 0.00 0.00 99 1021.8
20260901041103 55 36 0.0 1.0 0.00 0.00 0.00 99 1021.7
20260901041003 55 36 0.0 1.0 0.00 0.00 0.00 99 1021.8
20260901040903 55 36 0.0 1.0 0.00 0.00 0.00 99 1021.6
20260901040803 55 36 0.0 1.0 0.00 0.00 0.00 99 1021.6
20260901040703 55 36 0.0 1.0 0.00 0.00 0.00 99 1021.7
20260901040603 55 36 0.0 1.0 0.00 0.00 0.00 99 1021.7
20260901040503 55 36 0.0 1.0 0.00 0.00 0.00 99 1021.7
20260901040403 55 36 0.0 1.0 0.00 0.00 0.00 99 1021.8
20260901040303 55 35 0.0 1.0 0.00 0.00 0.00 99 1021.9
20260901040224 55 35 0.0 1.0 0.00 0.00 0.00 99 1021.6
20260901040103 55 35 0.0 1.0 0.00 0.00 0.00 99 1022.0
20260901040024 55 35 0.0 1.0 0.00 0.00 0.00 99 1021.8
20260901035903 55 34 0.0 1.0 0.00 0.00 0.00 99 1021.8
20260901035803 55 34 0.0 1.0 0.00 0.00 0.00 99 1021.9
20260901035703 55 34 0.0 1.0 0.00 0.00 0.00 99 1021.9
20260901035603 55 34 0.0 1.0 0.00 0.00 0.00 99 1021.8
20260901035503 55 35 0.0 1.0 0.00 0.00 0.00 99 1021.8
20260901035403 55 38 0.0 2.0 0.00 0.00 0.00 99 1021.9
20260901035305 55 39 0.0 2.0 0.00 0.00 0.00 99 1021.8
20260901035203 55 38 0.0 2.0 0.00 0.00 0.00 99 1021.8
20260901035103 55 38 1.0 2.0 0.00 0.00 0.00 99 1021.8
20260901035003 55 38 1.0 2.0 0.00 0.00 0.00 99 1021.8
20260901034903 55 37 1.0 2.0 0.00 0.00 0.00 99 1021.8
20260901034803 55 37 1.0 2.0 0.00 0.00 0.00 99 1021.8
20260901034703 56 37 1.0 2.0 0.00 0.00 0.00 99 1021.8
20260901034603 56 37 1.0 2.0 0.00 0.00 0.00 99 1022.0
20260901034503 56 38 1.0 2.0 0.00 0.00 0.00 99 1021.8
20260901034403 56 37 0.0 2.0 0.00 0.00 0.00 99 1021.7
20260901034303 56 32 0.0 1.0 0.00 0.00 0.00 99 1021.7
20260901034203 56 32 0.0 1.0 0.00 0.00 0.00 99 1021.8
20260901034103 56 31 0.0 1.0 0.00 0.00 0.00 99 1021.7
20260901034003 56 31 0.0 1.0 0.00 0.00 0.00 99 1021.6
20260901033924 56 31 0.0 1.0 0.00 0.00 0.00 99 1021.8
20260901033803 56 31 0.0 1.0 0.00 0.00 0.00 99 1021.8
20260901033703 56 31 0.0 1.0 0.00 0.00 0.00 99 1021.8
20260901033603 56 31 0.0 1.0 0.00 0.00 0.00 99 1021.8
20260901033503 56 31 0.0 1.0 0.00 0.00 0.00 99 1021.8
20260901033403 56 31 0.0 1.0 0.00 0.00 0.00 99 1021.8
20260901033303 56 31 0.0 1.0 0.00 0.00 0.00 99 1021.8
20260901033203 56 0 0.0 0.0 0.00 0.00 0.00 99 1021.7
20260901033103 56 0 0.0 0.0 0.00 0.00 0.00 99 1021.6
20260901033003 56 0 0.0 0.0 0.00 0.00 0.00 99 1021.7
20260901032903 55 0 0.0 0.0 0.00 0.00 0.00 99 1021.9
20260901032803 55 0 0.0 0.0 0.00 0.00 0.00 99 1021.7
20260901032703 55 0 0.0 0.0 0.00 0.00 0.00 99 1022.0
20260901032603 55 0 0.0 0.0 0.00 0.00 0.00 99 1021.7
20260901032503 55 0 0.0 0.0 0.00 0.00 0.00 99 1021.8
20260901032403 55 0 0.0 0.0 0.00 0.00 0.00 99 1021.9
20260901032306 55 0 0.0 0.0 0.00 0.00 0.00 99 1022.0
20260901032203 56 0 0.0 0.0 0.00 0.00 0.00 99 1021.8
20260901032103 56 0 0.0 0.0 0.00 0.00 0.00 99 1021.8
20260901032003 56 0 0.0 0.0 0.00 0.00 0.00 99 1021.8
20260901031903 56 0 0.0 0.0 0.00 0.00 0.00 99 1021.7
20260901031803 56 0 0.0 0.0 0.00 0.00 0.00 99 1021.6
20260901031703 56 0 0.0 0.0 0.00 0.00 0.00 99 1021.6
20260901031603 56 0 0.0 0.0 0.00 0.00 0.00 99 1021.9
20260901031503 56 0 0.0 0.0 0.00 0.00 0.00 99 1021.9
20260901031403 56 0 0.0 0.0 0.00 0.00 0.00 99 1021.9
20260901031324 56 0 0.0 0.0 0.00 0.00 0.00 99 1021.8
20260901031203 56 0 0.0 0.0 0.00 0.00 0.00 99 1021.9
20260901031103 56 0 0.0 0.0 0.00 0.00 0.00 99 1021.9
20260901031003 56 0 0.0 0.0 0.00 0.00 0.00 99 1021.6
20260901030903 56 0 0.0 0.0 0.00 0.00 0.00 99 1021.9
20260901030803 56 34 0.0 1.0 0.00 0.00 0.00 99 1021.9
20260901030703 56 34 0.0 1.0 0.00 0.00 0.00 99 1021.7
20260901030603 56 35 0.0 1.0 0.00 0.00 0.00 99 1021.7
20260901030503 56 34 0.0 1.0 0.00 0.00 0.00 99 1021.7
20260901030403 56 39 0.0 2.0 0.00 0.00 0.00 99 1021.7
20260901030303 56 37 0.0 2.0 0.00 0.00 0.00 99 1021.8
20260901030203 56 37 0.0 2.0 0.00 0.00 0.00 99 1021.8
20260901030124 56 36 0.0 2.0 0.00 0.00 0.00 99 1021.7
20260901030003 56 36 0.0 2.0 0.00 0.00 0.00 99 1021.8
20260901025903 56 35 1.0 2.0 0.00 0.00 0.00 99 1021.9
20260901025803 56 34 1.0 2.0 0.00 0.00 0.00 99 1021.9
20260901025724 56 34 1.0 2.0 0.00 0.00 0.00 99 1021.8
20260901025603 56 34 1.0 2.0 0.00 0.00 0.00 99 1021.8
20260901025503 56 34 0.0 2.0 0.00 0.00 0.00 99 1021.8
20260901025424 56 34 0.0 2.0 0.00 0.00 0.00 99 1022.1
20260901025305 56 29 0.0 1.0 0.00 0.00 0.00 99 1021.8
20260901025224 56 30 0.0 1.0 0.00 0.00 0.00 99 1021.9
20260901025103 56 30 0.0 1.0 0.00 0.00 0.00 99 1021.8
20260901025003 56 30 0.0 1.0 0.00 0.00 0.00 99 1022.0
20260901024903 56 30 0.0 1.0 0.00 0.00 0.00 99 1021.9
20260901024803 56 0 0.0 0.0 0.00 0.00 0.00 99 1021.9
20260901024703 56 0 0.0 0.0 0.00 0.00 0.00 99 1021.8
20260901024603 56 32 0.0 1.0 0.00 0.00 0.00 99 1021.9
20260901024503 56 32 0.0 1.0 0.00 0.00 0.00 99 1021.9
20260901024403 56 74 0.0 1.0 0.00 0.00 0.00 99 1022.0
20260901024303 56 56 0.0 1.0 0.00 0.00 0.00 99 1022.0
20260901024203 56 56 0.0 1.0 0.00 0.00 0.00 99 1022.0
20260901024103 56 48 0.0 1.0 0.00 0.00 0.00 99 1022.1
20260901024024 56 43 0.0 1.0 0.00 0.00 0.00 99 1022.1
20260901023924 57 43 0.0 1.0 0.00 0.00 0.00 99 1022.1
20260901023803 57 43 0.0 1.0 0.00 0.00 0.00 99 1022.1
20260901023724 57 43 0.0 1.0 0.00 0.00 0.00 99 1022.0
20260901023624 56 43 0.0 1.0 0.00 0.00 0.00 99 1022.0
20260901023503 56 46 0.0 1.0 0.00 0.00 0.00 99 1022.0
20260901023403 56 28 0.0 1.0 0.00 0.00 0.00 99 1021.9
20260901023303 56 27 0.0 1.0 0.00 0.00 0.00 99 1022.0
20260901023203 56 27 0.0 1.0 0.00 0.00 0.00 99 1022.0
20260901023102 56 25 0.0 1.0 0.00 0.00 0.00 99 1022.0
20260901023003 56 26 0.0 1.0 0.00 0.00 0.00 99 1022.1
20260901022903 57 26 0.0 1.0 0.00 0.00 0.00 99 1021.9
20260901022803 57 26 0.0 1.0 0.00 0.00 0.00 99 1022.1
20260901022702 57 26 0.0 1.0 0.00 0.00 0.00 99 1022.1
20260901022624 57 26 0.0 1.0 0.00 0.00 0.00 99 1022.0
20260901022502 57 26 0.0 1.0 0.00 0.00 0.00 99 1022.0
20260901022424 57 26 0.0 1.0 0.00 0.00 0.00 99 1022.0
20260901022323 57 26 0.0 1.0 0.00 0.00 0.00 99 1022.0
20260901022203 57 26 0.0 1.0 0.00 0.00 0.00 99 1022.0
20260901022102 57 26 0.0 1.0 0.00 0.00 0.00 99 1021.8
20260901022024 57 11 0.0 1.0 0.00 0.00 0.00 99 1021.9
20260901021924 57 0 0.0 0.0 0.00 0.00 0.00 99 1021.9
20260901021803 57 0 0.0 0.0 0.00 0.00 0.00 99 1021.9
20260901021702 57 0 0.0 0.0 0.00 0.00 0.00 99 1022.0
20260901021623 57 0 0.0 0.0 0.00 0.00 0.00 99 1022.0
20260901021524 57 0 0.0 0.0 0.00 0.00 0.00 99 1022.0
20260901021423 57 0 0.0 0.0 0.00 0.00 0.00 99 1021.9
20260901021303 57 0 0.0 0.0 0.00 0.00 0.00 99 1022.0
20260901021203 57 0 0.0 0.0 0.00 0.00 0.00 99 1021.8
20260901021102 57 0 0.0 0.0 0.00 0.00 0.00 99 1022.0
20260901021003 57 0 0.0 0.0 0.00 0.00 0.00 99 1022.1
20260901020903 57 10 0.0 1.0 0.00 0.00 0.00 99 1022.0
20260901020823 57 10 0.0 1.0 0.00 0.00 0.00 99 1022.0
20260901020703 57 10 0.0 1.0 0.00 0.00 0.00 99 1022.1
20260901020603 57 10 0.0 1.0 0.00 0.00 0.00 99 1022.1
20260901020503 57 10 0.0 1.0 0.00 0.00 0.00 99 1022.1
20260901020402 57 10 0.0 1.0 0.00 0.00 0.00 99 1022.1
20260901020302 57 10 0.0 1.0 0.00 0.00 0.00 99 1022.2
20260901020223 57 10 0.0 1.0 0.00 0.00 0.00 99 1022.1
20260901020003 57 10 0.0 1.0 0.00 0.00 0.00 99 1022.0
20260901015903 57 10 0.0 1.0 0.00 0.00 0.00 99 1022.0
20260901015802 57 0 0.0 0.0 0.00 0.00 0.00 99 1022.1
20260901015724 57 0 0.0 0.0 0.00 0.00 0.00 99 1022.2
20260901015623 57 0 0.0 0.0 0.00 0.00 0.00 99 1022.1
20260901015502 57 0 0.0 0.0 0.00 0.00 0.00 99 1022.1
20260901015402 57 0 0.0 0.0 0.00 0.00 0.00 99 1022.3
20260901015324 57 0 0.0 0.0 0.00 0.00 0.00 99 1022.4
20260901015223 57 0 0.0 0.0 0.00 0.00 0.00 99 1022.3
20260901015124 57 0 0.0 0.0 0.00 0.00 0.00 99 1022.3
20260901015003 57 0 0.0 0.0 0.00 0.00 0.00 99 1022.2
20260901014903 57 0 0.0 0.0 0.00 0.00 0.00 99 1022.2
20260901014802 57 0 0.0 0.0 0.00 0.00 0.00 99 1022.3
20260901014702 57 0 0.0 0.0 0.00 0.00 0.00 99 1022.3
20260901014603 57 0 0.0 0.0 0.00 0.00 0.00 99 1022.4
20260901014503 57 0 0.0 0.0 0.00 0.00 0.00 99 1022.4
20260901014402 57 0 0.0 0.0 0.00 0.00 0.00 99 1022.4
20260901014303 57 0 0.0 0.0 0.00 0.00 0.00 99 1022.4
20260901014202 58 0 0.0 0.0 0.00 0.00 0.00 99 1022.4
20260901014103 58 0 0.0 0.0 0.00 0.00 0.00 99 1022.5
20260901014003 58 0 0.0 0.0 0.00 0.00 0.00 99 1022.3
20260901013903 58 0 0.0 0.0 0.00 0.00 0.00 99 1022.5
20260901013824 58 0 0.0 0.0 0.00 0.00 0.00 99 1022.5
20260901013702 58 0 0.0 0.0 0.00 0.00 0.00 99 1022.4
20260901013603 58 0 0.0 0.0 0.00 0.00 0.00 99 1022.4
20260901013503 58 0 0.0 0.0 0.00 0.00 0.00 99 1022.6
20260901013403 58 10 0.0 1.0 0.00 0.00 0.00 99 1022.2
20260901013302 58 10 0.0 1.0 0.00 0.00 0.00 99 1022.5
20260901013203 58 10 0.0 1.0 0.00 0.00 0.00 99 1022.5
20260901013102 58 10 0.0 1.0 0.00 0.00 0.00 99 1022.5
20260901013024 58 10 0.0 1.0 0.00 0.00 0.00 99 1022.4
20260901012902 58 10 0.0 1.0 0.00 0.00 0.00 99 1022.5
20260901012802 58 10 0.0 1.0 0.00 0.00 0.00 99 1022.5
20260901012702 58 10 0.0 1.0 0.00 0.00 0.00 99 1022.4
20260901012603 58 10 0.0 1.0 0.00 0.00 0.00 99 1022.5
20260901012503 58 10 0.0 1.0 0.00 0.00 0.00 99 1022.5
20260901012403 58 10 0.0 1.0 0.00 0.00 0.00 99 1022.5
20260901012306 58 10 0.0 1.0 0.00 0.00 0.00 99 1022.5
20260901012202 58 10 0.0 1.0 0.00 0.00 0.00 99 1022.5
20260901012102 58 10 0.0 1.0 0.00 0.00 0.00 99 1022.4
20260901012003 58 10 0.0 1.0 0.00 0.00 0.00 99 1022.5
20260901011903 58 10 0.0 1.0 0.00 0.00 0.00 99 1022.4
20260901011803 58 10 0.0 1.0 0.00 0.00 0.00 98 1022.3
20260901011723 58 10 0.0 1.0 0.00 0.00 0.00 98 1022.5
20260901011603 58 10 0.0 1.0 0.00 0.00 0.00 98 1022.4
20260901011503 58 10 0.0 1.0 0.00 0.00 0.00 98 1022.4
20260901011423 58 10 0.0 1.0 0.00 0.00 0.00 98 1022.3
20260901011324 58 10 0.0 1.0 0.00 0.00 0.00 98 1022.5
20260901011202 58 10 0.0 1.0 0.00 0.00 0.00 99 1022.4
20260901011103 58 0 0.0 0.0 0.00 0.00 0.00 98 1022.4
20260901011002 58 0 0.0 0.0 0.00 0.00 0.00 98 1022.5
20260901010903 58 0 0.0 0.0 0.00 0.00 0.00 98 1022.6
20260901010803 58 0 0.0 0.0 0.00 0.00 0.00 98 1022.4
20260901010702 58 0 0.0 0.0 0.00 0.00 0.00 98 1022.4
20260901010603 58 0 0.0 0.0 0.00 0.00 0.00 98 1022.7
20260901010524 58 0 0.0 0.0 0.00 0.00 0.00 98 1022.7
20260901010403 58 0 0.0 0.0 0.00 0.00 0.00 98 1022.6
20260901010303 58 0 0.0 0.0 0.00 0.00 0.00 98 1022.6
20260901010202 58 0 0.0 0.0 0.00 0.00 0.00 98 1022.7
20260901010003 58 0 0.0 0.0 0.00 0.00 0.00 98 1022.5
20260901005903 58 0 0.0 0.0 0.00 0.00 0.00 98 1022.6
20260901005803 58 0 0.0 0.0 0.00 0.00 0.00 98 1022.7
20260901005703 58 0 0.0 0.0 0.00 0.00 0.00 98 1022.5
20260901005624 58 0 0.0 0.0 0.00 0.00 0.00 98 1022.6
20260901005503 58 0 0.0 0.0 0.00 0.00 0.00 98 1022.6
20260901005403 58 0 0.0 0.0 0.00 0.00 0.00 98 1022.6
20260901005306 58 0 0.0 0.0 0.00 0.00 0.00 98 1022.7
20260901005202 58 0 0.0 0.0 0.00 0.00 0.00 98 1022.5
20260901005103 58 0 0.0 0.0 0.00 0.00 0.00 98 1022.7
20260901005024 58 0 0.0 0.0 0.00 0.00 0.00 98 1022.7
20260901004903 58 0 0.0 0.0 0.00 0.00 0.00 98 1022.6
20260901004824 58 0 0.0 0.0 0.00 0.00 0.00 98 1022.7
20260901004702 58 0 0.0 0.0 0.00 0.00 0.00 98 1022.8
20260901004624 58 10 0.0 1.0 0.00 0.00 0.00 98 1022.7
20260901004502 58 10 0.0 1.0 0.00 0.00 0.00 98 1022.7
20260901004403 58 10 0.0 1.0 0.00 0.00 0.00 98 1022.6
20260901004303 58 10 0.0 1.0 0.00 0.00 0.00 98 1022.7
20260901004224 58 10 0.0 1.0 0.00 0.00 0.00 98 1022.8
20260901004102 58 10 0.0 1.0 0.00 0.00 0.00 98 1022.6
20260901004003 58 10 0.0 1.0 0.00 0.00 0.00 98 1022.7
20260901003906 58 10 0.0 1.0 0.00 0.00 0.00 98 1022.7
20260901003803 58 10 0.0 1.0 0.00 0.00 0.00 98 1022.6
20260901003703 58 10 0.0 1.0 0.00 0.00 0.00 98 1022.5
20260901003603 58 10 0.0 1.0 0.00 0.00 0.00 98 1022.6
20260901003524 58 10 0.0 1.0 0.00 0.00 0.00 98 1022.5
20260901003402 58 10 0.0 1.0 0.00 0.00 0.00 98 1022.7
20260901003303 58 10 0.0 1.0 0.00 0.00 0.00 98 1022.6
20260901003203 58 0 0.0 0.0 0.00 0.00 0.00 98 1022.6
20260901003103 58 0 0.0 0.0 0.00 0.00 0.00 98 1022.7
20260901003003 58 0 0.0 0.0 0.00 0.00 0.00 98 1022.7
20260901002902 58 0 0.0 0.0 0.00 0.00 0.00 98 1022.8
20260901002803 58 0 0.0 0.0 0.00 0.00 0.00 98 1022.5
20260901002703 58 0 0.0 0.0 0.00 0.00 0.00 97 1022.8
20260901002603 58 0 0.0 0.0 0.00 0.00 0.00 97 1022.7
20260901002503 58 0 0.0 0.0 0.00 0.00 0.00 97 1022.6
20260901002403 58 0 0.0 0.0 0.00 0.00 0.00 97 1022.7
20260901002305 58 0 0.0 0.0 0.00 0.00 0.00 97 1022.7
20260901002203 58 0 0.0 0.0 0.00 0.00 0.00 97 1022.7
20260901002124 58 0 0.0 0.0 0.00 0.00 0.00 97 1022.9
20260901002002 58 0 0.0 0.0 0.00 0.00 0.00 97 1022.9
20260901001924 59 0 0.0 0.0 0.00 0.00 0.00 97 1022.9
20260901001802 59 0 0.0 0.0 0.00 0.00 0.00 97 1022.9
20260901001703 59 0 0.0 0.0 0.00 0.00 0.00 97 1023.0
20260901001603 59 0 0.0 0.0 0.00 0.00 0.00 97 1023.2
20260901001502 59 0 0.0 0.0 0.00 0.00 0.00 97 1023.2
20260901001424 59 0 0.0 0.0 0.00 0.00 0.00 97 1023.1
20260901001324 59 0 0.0 0.0 0.00 0.00 0.00 97 1023.0
20260901001203 59 0 0.0 0.0 0.00 0.00 0.00 97 1023.0
20260901001103 59 0 0.0 0.0 0.00 0.00 0.00 97 1023.0
20260901001003 59 0 0.0 0.0 0.00 0.00 0.00 97 1023.0
20260901000903 59 0 0.0 0.0 0.00 0.00 0.00 97 1023.2
20260901000803 59 0 0.0 0.0 0.00 0.00 0.00 97 1022.9
20260901000703 59 0 0.0 0.0 0.00 0.00 0.00 97 1022.9
20260901000603 59 9 0.0 1.0 0.00 0.00 0.00 97 1023.1
20260901000503 59 9 0.0 1.0 0.00 0.00 0.00 97 1022.8
20260901000403 59 9 0.0 1.0 0.00 0.00 0.00 97 1023.2
20260901000303 59 9 0.0 1.0 0.00 0.00 0.00 97 1022.8
20260901000203 59 9 0.0 1.0 0.00 0.00 0.00 97 1023.1
20260901000124 59 9 0.0 1.0 0.00 0.00 0.00 97 1023.0
20260901000003 59 9 0.0 1.0 0.00 0.00 0.00 97 1023.0
20260831235903 59 9 0.0 1.0 0.00 0.00 0.00 97 1023.1
20260831235803 59 9 0.0 1.0 0.00 0.00 0.00 97 1023.0
20260831235724 59 9 0.0 1.0 0.00 0.00 0.00 97 1023.0
20260831235603 59 0 0.0 0.0 0.00 0.00 0.00 97 1023.0
20260831235503 59 0 0.0 0.0 0.00 0.00 0.00 97 1022.9
20260831235402 59 0 0.0 0.0 0.00 0.00 0.00 97 1022.9
20260831235306 59 0 0.0 0.0 0.00 0.00 0.00 97 1023.0
20260831235203 59 0 0.0 0.0 0.00 0.00 0.00 97 1022.8
20260831235102 59 0 0.0 0.0 0.00 0.00 0.00 97 1022.8
20260831235003 59 8 0.0 1.0 0.00 0.00 0.00 97 1022.8
20260831234903 59 8 0.0 1.0 0.00 0.00 0.00 97 1022.9
20260831234802 59 8 0.0 1.0 0.00 0.00 0.00 97 1023.1
20260831234703 59 8 0.0 1.0 0.00 0.00 0.00 97 1022.9
20260831234603 59 8 0.0 1.0 0.00 0.00 0.00 97 1023.1
20260831234503 59 8 0.0 1.0 0.00 0.00 0.00 97 1023.0
20260831234403 59 8 0.0 1.0 0.00 0.00 0.00 97 1023.1
20260831234303 59 8 0.0 1.0 0.00 0.00 0.00 97 1023.0
20260831234224 59 8 0.0 1.0 0.00 0.00 0.00 97 1023.1
20260831234103 59 8 0.0 1.0 0.00 0.00 0.00 97 1023.1
20260831234003 59 9 0.0 1.0 0.00 0.00 0.00 96 1023.0
20260831233924 59 9 0.0 1.0 0.00 0.00 0.00 96 1023.0
20260831233803 59 9 0.0 1.0 0.00 0.00 0.00 96 1022.9
20260831233724 59 9 0.0 1.0 0.00 0.00 0.00 96 1023.0
20260831233602 59 0 0.0 0.0 0.00 0.00 0.00 96 1023.0
20260831233503 59 0 0.0 0.0 0.00 0.00 0.00 96 1023.0
20260831233403 59 0 0.0 0.0 0.00 0.00 0.00 96 1023.1
20260831233303 59 0 0.0 0.0 0.00 0.00 0.00 96 1023.0
20260831233203 59 0 0.0 0.0 0.00 0.00 0.00 96 1023.0
20260831233103 59 34 0.0 1.0 0.00 0.00 0.00 96 1023.0
20260831233003 59 36 0.0 1.0 0.00 0.00 0.00 96 1023.0
20260831232903 59 36 0.0 1.0 0.00 0.00 0.00 96 1022.9
20260831232803 59 36 0.0 1.0 0.00 0.00 0.00 96 1022.9
20260831232703 59 36 0.0 1.0 0.00 0.00 0.00 96 1022.9
20260831232603 59 36 0.0 1.0 0.00 0.00 0.00 96 1022.9
20260831232503 59 36 0.0 1.0 0.00 0.00 0.00 96 1022.8
20260831232424 59 36 0.0 1.0 0.00 0.00 0.00 96 1023.1
20260831232305 59 36 0.0 1.0 0.00 0.00 0.00 96 1023.1
20260831232224 60 22 0.0 1.0 0.00 0.00 0.00 96 1023.0
20260831232124 60 8 0.0 1.0 0.00 0.00 0.00 96 1023.1
20260831232003 60 354 0.0 1.0 0.00 0.00 0.00 96 1023.1
20260831231924 60 354 0.0 1.0 0.00 0.00 0.00 96 1023.1
20260831231803 60 354 0.0 1.0 0.00 0.00 0.00 96 1023.1
20260831231703 60 354 0.0 1.0 0.00 0.00 0.00 96 1023.1
20260831231603 60 354 0.0 1.0 0.00 0.00 0.00 96 1023.2
20260831231503 60 354 0.0 1.0 0.00 0.00 0.00 96 1023.2
20260831231403 60 354 0.0 1.0 0.00 0.00 0.00 96 1023.3
20260831231304 60 354 0.0 1.0 0.00 0.00 0.00 95 1023.1
20260831231203 60 354 0.0 1.0 0.00 0.00 0.00 95 1023.0
20260831231124 60 0 0.0 0.0 0.00 0.00 0.00 95 1023.0
20260831231003 60 0 0.0 0.0 0.00 0.00 0.00 95 1023.1
20260831230903 60 0 0.0 0.0 0.00 0.00 0.00 95 1023.0
20260831230803 60 0 0.0 0.0 0.00 0.00 0.00 95 1023.2
20260831230703 60 0 0.0 0.0 0.00 0.00 0.00 95 1023.2
20260831230603 60 0 0.0 0.0 0.00 0.00 0.00 95 1023.1
20260831230503 60 0 0.0 0.0 0.00 0.00 0.00 95 1023.1
20260831230403 60 0 0.0 0.0 0.00 0.00 0.00 95 1023.0
20260831230303 60 0 0.0 0.0 0.00 0.00 0.00 95 1023.1
20260831230203 60 353 0.0 1.0 0.00 0.00 0.00 95 1023.1
20260831230024 60 353 0.0 1.0 0.00 0.00 0.00 95 1023.1
20260831225903 60 353 0.0 1.0 0.00 0.00 0.00 95 1023.1
20260831225803 61 353 0.0 1.0 0.00 0.00 0.00 95 1023.1
20260831225703 61 353 0.0 1.0 0.00 0.00 0.00 95 1023.2
20260831225603 61 353 0.0 1.0 0.00 0.00 0.00 95 1023.1
20260831225503 61 353 0.0 1.0 0.00 0.00 0.00 95 1023.1
20260831225403 61 353 0.0 1.0 0.00 0.00 0.00 95 1023.1
20260831225306 61 353 0.0 1.0 0.00 0.00 0.00 95 1023.2
20260831225203 61 353 0.0 1.0 0.00 0.00 0.00 95 1023.2
20260831225124 61 353 0.0 1.0 0.00 0.00 0.00 95 1023.2
20260831225024 61 353 0.0 1.0 0.00 0.00 0.00 95 1022.9
20260831224924 61 353 0.0 1.0 0.00 0.00 0.00 95 1023.2
20260831224803 61 353 0.0 1.0 0.00 0.00 0.00 95 1023.2
20260831224724 61 353 0.0 1.0 0.00 0.00 0.00 95 1023.2
20260831224603 61 353 1.0 1.0 0.00 0.00 0.00 95 1023.1
20260831224503 61 353 1.0 1.0 0.00 0.00 0.00 95 1023.1
20260831224403 61 353 1.0 1.0 0.00 0.00 0.00 95 1023.1
20260831224303 61 353 1.0 1.0 0.00 0.00 0.00 95 1023.2
20260831224203 61 353 1.0 1.0 0.00 0.00 0.00 95 1023.1
20260831224103 61 353 1.0 1.0 0.00 0.00 0.00 95 1023.1
20260831224003 61 353 1.0 1.0 0.00 0.00 0.00 95 1023.3
20260831223903 61 353 1.0 1.0 0.00 0.00 0.00 95 1023.3
20260831223803 61 353 1.0 1.0 0.00 0.00 0.00 95 1023.1
20260831223703 61 353 1.0 1.0 0.00 0.00 0.00 94 1023.2
20260831223603 61 353 1.0 1.0 0.00 0.00 0.00 94 1023.1
20260831223503 61 353 1.0 1.0 0.00 0.00 0.00 94 1023.1
20260831223424 61 353 1.0 1.0 0.00 0.00 0.00 94 1023.0
20260831223303 61 353 1.0 1.0 0.00 0.00 0.00 94 1023.2
20260831223203 61 353 1.0 1.0 0.00 0.00 0.00 94 1023.3
20260831223103 61 353 1.0 1.0 0.00 0.00 0.00 94 1023.3
20260831223003 61 353 1.0 1.0 0.00 0.00 0.00 94 1023.1
20260831222903 61 353 1.0 1.0 0.00 0.00 0.00 94 1023.2
20260831222803 61 353 1.0 1.0 0.00 0.00 0.00 94 1023.1
20260831222703 61 353 1.0 1.0 0.00 0.00 0.00 94 1023.1
20260831222603 61 353 1.0 1.0 0.00 0.00 0.00 94 1023.3
20260831222503 61 353 0.0 1.0 0.00 0.00 0.00 94 1023.1
20260831222424 62 353 1.0 1.0 0.00 0.00 0.00 94 1023.2
20260831222306 62 353 1.0 1.0 0.00 0.00 0.00 94 1023.2
20260831222203 62 353 1.0 1.0 0.00 0.00 0.00 94 1023.2
20260831222103 62 353 0.0 1.0 0.00 0.00 0.00 94 1023.5
20260831222003 62 353 0.0 1.0 0.00 0.00 0.00 94 1023.2
20260831221903 62 353 1.0 1.0 0.00 0.00 0.00 94 1023.2
20260831221803 62 353 0.0 1.0 0.00 0.00 0.00 94 1023.3
20260831221703 62 353 0.0 1.0 0.00 0.00 0.00 94 1023.1
20260831221603 62 353 0.0 1.0 0.00 0.00 0.00 94 1023.3
20260831221503 62 353 0.0 1.0 0.00 0.00 0.00 93 1023.3
20260831221424 62 353 0.0 1.0 0.00 0.00 0.00 93 1023.2
20260831221303 62 353 0.0 1.0 0.00 0.00 0.00 93 1023.2
20260831221203 62 353 0.0 1.0 0.00 0.00 0.00 93 1023.3
20260831221103 62 353 0.0 1.0 0.00 0.00 0.00 93 1023.5
20260831221003 62 353 0.0 1.0 0.00 0.00 0.00 93 1023.6
20260831220924 62 353 0.0 1.0 0.00 0.00 0.00 93 1023.6
20260831220803 62 353 0.0 1.0 0.00 0.00 0.00 93 1023.5
20260831220703 62 353 0.0 1.0 0.00 0.00 0.00 93 1023.3
20260831220603 62 353 0.0 1.0 0.00 0.00 0.00 93 1023.3
20260831220503 62 353 0.0 1.0 0.00 0.00 0.00 93 1023.5
20260831220403 62 353 0.0 1.0 0.00 0.00 0.00 93 1023.5
20260831220303 62 353 0.0 1.0 0.00 0.00 0.00 93 1023.7
20260831220203 62 353 0.0 1.0 0.00 0.00 0.00 93 1023.5
20260831220003 62 353 0.0 1.0 0.00 0.00 0.00 93 1023.5
20260831215903 62 353 0.0 1.0 0.00 0.00 0.00 93 1023.5
20260831215824 62 353 0.0 1.0 0.00 0.00 0.00 93 1023.7
20260831215703 62 353 0.0 1.0 0.00 0.00 0.00 93 1023.6
20260831215603 62 353 0.0 1.0 0.00 0.00 0.00 93 1023.6
20260831215503 62 353 0.0 1.0 0.00 0.00 0.00 93 1023.6
20260831215403 62 353 0.0 1.0 0.00 0.00 0.00 94 1023.7
20260831215324 62 353 0.0 1.0 0.00 0.00 0.00 94 1023.6
20260831215203 62 353 0.0 1.0 0.00 0.00 0.00 94 1023.7
20260831215103 62 353 0.0 1.0 0.00 0.00 0.00 94 1023.6
20260831215003 62 353 0.0 1.0 0.00 0.00 0.00 94 1023.6
20260831214924 62 353 0.0 1.0 0.00 0.00 0.00 94 1023.3
20260831214803 62 0 0.0 0.0 0.00 0.00 0.00 93 1023.7
20260831214703 62 0 0.0 0.0 0.00 0.00 0.00 93 1023.7
20260831214603 62 0 0.0 0.0 0.00 0.00 0.00 93 1023.5
20260831214503 62 353 0.0 1.0 0.00 0.00 0.00 93 1023.7
20260831214403 62 353 0.0 1.0 0.00 0.00 0.00 93 1023.6
20260831214303 62 353 0.0 1.0 0.00 0.00 0.00 93 1023.7
20260831214203 62 353 0.0 1.0 0.00 0.00 0.00 93 1023.6
20260831214103 62 353 0.0 1.0 0.00 0.00 0.00 93 1023.6
20260831214003 62 353 0.0 1.0 0.00 0.00 0.00 93 1023.6
20260831213903 62 353 0.0 1.0 0.00 0.00 0.00 93 1023.6
20260831213826 62 353 0.0 1.0 0.00 0.00 0.00 93 1023.6
20260831213724 62 353 0.0 1.0 0.00 0.00 0.00 93 1023.7
20260831213603 62 353 0.0 1.0 0.00 0.00 0.00 93 1023.6
20260831213524 62 353 0.0 1.0 0.00 0.00 0.00 93 1023.8
20260831213403 62 353 0.0 1.0 0.00 0.00 0.00 93 1023.7
20260831213303 62 353 0.0 1.0 0.00 0.00 0.00 93 1023.6
20260831213224 62 353 0.0 1.0 0.00 0.00 0.00 93 1023.8
20260831213103 63 353 0.0 1.0 0.00 0.00 0.00 93 1023.9
20260831213024 63 353 0.0 1.0 0.00 0.00 0.00 93 1023.8
20260831212903 63 353 0.0 1.0 0.00 0.00 0.00 93 1023.7
20260831212803 63 353 0.0 1.0 0.00 0.00 0.00 93 1023.9
20260831212703 63 353 0.0 1.0 0.00 0.00 0.00 93 1023.8
20260831212624 63 353 0.0 1.0 0.00 0.00 0.00 93 1023.8
20260831212524 63 353 0.0 1.0 0.00 0.00 0.00 93 1023.7
20260831212403 63 353 0.0 1.0 0.00 0.00 0.00 93 1023.8
20260831212306 63 353 1.0 1.0 0.00 0.00 0.00 93 1023.9
20260831212203 63 353 1.0 1.0 0.00 0.00 0.00 93 1023.8
20260831212103 63 353 1.0 1.0 0.00 0.00 0.00 93 1023.8
20260831212003 63 353 1.0 1.0 0.00 0.00 0.00 92 1023.8
20260831211903 63 353 0.0 1.0 0.00 0.00 0.00 92 1023.8
20260831211803 63 353 0.0 1.0 0.00 0.00 0.00 92 1023.7
20260831211703 63 353 0.0 1.0 0.00 0.00 0.00 92 1023.7
20260831211603 63 353 0.0 1.0 0.00 0.00 0.00 92 1023.5
20260831211503 63 353 0.0 1.0 0.00 0.00 0.00 92 1023.7
20260831211403 63 353 0.0 1.0 0.00 0.00 0.00 92 1023.7
20260831211303 63 353 0.0 1.0 0.00 0.00 0.00 92 1023.6
20260831211203 63 353 0.0 1.0 0.00 0.00 0.00 92 1023.8
20260831211103 63 353 0.0 1.0 0.00 0.00 0.00 92 1023.7
20260831211003 63 354 0.0 1.0 0.00 0.00 0.00 92 1023.7
20260831210903 63 354 0.0 1.0 0.00 0.00 0.00 92 1023.6
20260831210803 63 355 0.0 1.0 0.00 0.00 0.00 92 1023.6
20260831210703 63 355 0.0 1.0 0.00 0.00 0.00 92 1023.6
20260831210603 63 356 0.0 1.0 0.00 0.00 0.00 92 1023.7
20260831210503 63 356 0.0 1.0 0.00 0.00 0.00 92 1023.6
20260831210403 63 356 0.0 1.0 0.00 0.00 0.00 92 1023.9
20260831210303 63 356 0.0 1.0 0.00 0.00 0.00 92 1023.9
20260831210224 63 357 0.0 1.0 0.00 0.00 0.00 92 1023.6
20260831210103 63 357 0.0 1.0 0.00 0.00 0.00 92 1023.7
20260831210003 63 357 0.0 1.0 0.00 0.00 0.00 92 1023.7
20260831205903 63 357 0.0 1.0 0.00 0.00 0.00 92 1023.7
20260831205803 63 357 0.0 1.0 0.00 0.00 0.00 91 1023.8
20260831205703 63 357 0.0 1.0 0.00 0.00 0.00 91 1023.9
20260831205603 63 357 0.0 1.0 0.00 0.00 0.00 91 1023.7
20260831205503 63 357 0.0 1.0 0.00 0.00 0.00 91 1023.7
20260831205403 63 357 0.0 1.0 0.00 0.00 0.00 91 1023.7
20260831205324 63 358 0.0 1.0 0.00 0.00 0.00 91 1023.6
20260831205203 63 358 0.0 1.0 0.00 0.00 0.00 91 1023.7
20260831205103 63 358 0.0 1.0 0.00 0.00 0.00 91 1023.7
20260831205003 63 359 0.0 1.0 0.00 0.00 0.00 91 1023.9
20260831204903 63 359 0.0 1.0 0.00 0.00 0.00 91 1023.8
20260831204824 63 359 0.0 1.0 0.00 0.00 0.00 91 1023.9
20260831204703 63 360 0.0 1.0 0.00 0.00 0.00 90 1023.9
20260831204624 64 360 0.0 1.0 0.00 0.00 0.00 90 1023.8
20260831204503 64 360 0.0 1.0 0.00 0.00 0.00 90 1023.8
20260831204403 64 360 0.0 1.0 0.00 0.00 0.00 90 1023.7
20260831204303 64 1 0.0 1.0 0.00 0.00 0.00 90 1023.7
20260831204203 64 1 0.0 1.0 0.00 0.00 0.00 90 1023.7
20260831204103 64 1 0.0 2.0 0.00 0.00 0.00 90 1023.7
20260831204003 64 1 0.0 2.0 0.00 0.00 0.00 89 1023.9
20260831203903 64 1 0.0 2.0 0.00 0.00 0.00 89 1023.7
20260831203803 64 1 0.0 2.0 0.00 0.00 0.00 89 1023.8
20260831203703 64 1 0.0 2.0 0.00 0.00 0.00 89 1023.6
20260831203603 64 1 0.0 2.0 0.00 0.00 0.00 89 1023.6
20260831203503 64 1 0.0 2.0 0.00 0.00 0.00 88 1023.5
20260831203424 64 1 0.0 2.0 0.00 0.00 0.00 88 1023.5
20260831203303 64 1 1.0 2.0 0.00 0.00 0.00 88 1023.5
20260831203203 64 1 1.0 2.0 0.00 0.00 0.00 88 1023.5
20260831203103 64 1 1.0 2.0 0.00 0.00 0.00 88 1023.6
20260831203003 64 1 1.0 1.0 0.00 0.00 0.00 88 1023.5
20260831202903 64 1 1.0 1.0 0.00 0.00 0.00 88 1023.6
20260831202803 64 2 1.0 1.0 0.00 0.00 0.00 87 1023.7
20260831202724 64 2 1.0 1.0 0.00 0.00 0.00 87 1023.7
20260831202624 64 3 1.0 1.0 0.00 0.00 0.00 87 1023.6
20260831202503 65 4 1.0 1.0 0.00 0.00 0.00 87 1023.8
20260831202403 65 5 1.0 1.0 0.00 0.00 0.00 87 1023.5
20260831202306 65 6 1.0 1.0 0.00 0.00 0.00 87 1023.6
20260831202203 65 6 1.0 1.0 0.00 0.00 0.00 87 1023.5
20260831202103 65 6 1.0 1.0 0.00 0.00 0.00 87 1023.5
20260831202003 65 7 1.0 1.0 0.00 0.00 0.00 86 1023.6
20260831201903 65 8 1.0 1.0 0.00 0.00 0.00 86 1023.5
20260831201803 65 8 1.0 1.0 0.00 0.00 0.00 86 1023.5
20260831201703 65 5 1.0 2.0 0.00 0.00 0.00 86 1023.3
20260831201603 65 5 1.0 2.0 0.00 0.00 0.00 86 1023.3
20260831201524 65 3 1.0 2.0 0.00 0.00 0.00 86 1023.3
20260831201424 65 3 1.0 2.0 0.00 0.00 0.00 86 1023.3
20260831201303 65 2 1.0 2.0 0.00 0.00 0.00 86 1023.5
20260831201203 65 1 1.0 2.0 0.00 0.00 0.00 86 1023.3
20260831201103 65 360 1.0 2.0 0.00 0.00 0.00 85 1023.3
20260831201003 65 360 1.0 2.0 0.00 0.00 0.00 85 1023.3
20260831200903 65 360 1.0 2.0 0.00 0.00 0.00 85 1023.3
20260831200803 65 359 1.0 2.0 0.00 0.00 0.00 85 1023.3
20260831200703 65 358 1.0 2.0 0.00 0.00 0.00 85 1023.3
20260831200603 65 359 1.0 2.0 0.00 0.00 0.00 85 1023.3
20260831200503 65 360 1.0 2.0 0.00 0.00 0.00 85 1023.5
20260831200403 65 360 1.0 2.0 0.00 0.00 0.00 85 1023.2
20260831200303 65 356 1.0 3.0 0.00 0.00 0.00 85 1023.2
20260831200203 65 358 1.0 3.0 0.00 0.00 0.00 85 1023.5
20260831200003 65 360 1.0 3.0 0.00 0.00 0.00 85 1023.2
20260831195903 65 360 1.0 3.0 0.00 0.00 0.00 85 1023.2
20260831195803 66 2 1.0 3.0 0.00 0.00 0.00 84 1023.6
20260831195703 66 3 1.0 3.0 0.00 0.00 0.00 84 1023.3
20260831195603 66 2 1.0 3.0 0.00 0.00 0.00 84 1023.2
20260831195524 66 1 1.0 3.0 0.00 0.00 0.00 84 1023.5
20260831195403 66 1 1.0 3.0 0.00 0.00 0.00 84 1023.3
20260831195306 66 3 1.0 3.0 0.00 0.00 0.00 84 1023.3
20260831195224 66 3 1.0 4.0 0.00 0.00 0.00 84 1023.2
20260831195103 66 5 2.0 6.0 0.00 0.00 0.00 83 1023.2
20260831195003 66 6 2.0 6.0 0.00 0.00 0.00 83 1023.2
20260831194924 66 6 2.0 6.0 0.00 0.00 0.00 83 1023.2
20260831194803 66 6 2.0 6.0 0.00 0.00 0.00 83 1023.1
20260831194724 66 6 2.0 6.0 0.00 0.00 0.00 83 1023.1
20260831194603 66 4 2.0 6.0 0.00 0.00 0.00 83 1023.3
20260831194503 66 5 2.0 6.0 0.00 0.00 0.00 83 1023.3
20260831194403 66 5 2.0 6.0 0.00 0.00 0.00 83 1023.1
20260831194324 66 6 2.0 6.0 0.00 0.00 0.00 83 1023.3
20260831194203 66 3 2.0 6.0 0.00 0.00 0.00 83 1023.1
20260831194103 66 3 2.0 6.0 0.00 0.00 0.00 83 1023.2
20260831194003 66 359 2.0 4.0 0.00 0.00 0.00 83 1023.2
20260831193903 66 349 2.0 4.0 0.00 0.00 0.00 83 1023.3
20260831193803 66 348 2.0 4.0 0.00 0.00 0.00 83 1023.2
20260831193703 66 347 2.0 4.0 0.00 0.00 0.00 83 1023.2
20260831193603 66 347 2.0 4.0 0.00 0.00 0.00 83 1023.1
20260831193524 66 347 3.0 4.0 0.00 0.00 0.00 83 1023.2
20260831193403 66 347 2.0 4.0 0.00 0.00 0.00 83 1023.5
20260831193303 66 348 3.0 4.0 0.00 0.00 0.00 83 1023.2
20260831193203 66 351 2.0 4.0 0.00 0.00 0.00 83 1023.3
20260831193103 66 350 3.0 4.0 0.00 0.00 0.00 83 1023.2
20260831193003 66 350 3.0 4.0 0.00 0.00 0.00 83 1023.2
20260831192903 66 352 3.0 4.0 0.00 0.00 0.00 83 1023.3
20260831192824 66 358 2.0 4.0 0.00 0.00 0.00 83 1023.1
20260831192724 66 1 2.0 4.0 0.00 0.00 0.00 83 1023.2
20260831192603 66 1 2.0 4.0 0.00 0.00 0.00 82 1023.0
20260831192503 66 5 2.0 6.0 0.00 0.00 0.00 83 1023.0
20260831192403 66 360 2.0 6.0 0.00 0.00 0.00 83 1023.2
20260831192305 66 358 3.0 7.0 0.00 0.00 0.00 83 1023.2
20260831192203 66 355 3.0 7.0 0.00 0.00 0.00 83 1023.1
20260831192103 67 353 3.0 7.0 0.00 0.00 0.00 83 1023.2
20260831192003 67 354 3.0 7.0 0.00 0.00 0.00 83 1023.2
20260831191903 67 354 3.0 7.0 0.00 0.00 0.00 83 1023.2
20260831191803 67 354 3.0 7.0 0.00 0.00 0.00 82 1023.1
20260831191703 67 353 3.0 7.0 0.00 0.00 0.00 82 1022.9
20260831191603 67 353 3.0 7.0 0.00 0.00 0.00 82 1022.9
20260831191503 67 348 3.0 8.0 0.00 0.00 0.00 82 1022.9
20260831191403 67 350 3.0 8.0 0.00 0.00 0.00 82 1022.8
20260831191303 67 352 3.0 8.0 0.00 0.00 0.00 82 1022.9
20260831191203 67 354 3.0 8.0 0.00 0.00 0.00 82 1022.9
20260831191103 67 354 3.0 8.0 0.00 0.00 0.00 82 1022.9
20260831191003 67 355 2.0 8.0 0.00 0.00 0.00 82 1022.9
20260831190903 67 354 2.0 8.0 0.00 0.00 0.00 83 1023.0
20260831190803 67 354 2.0 8.0 0.00 0.00 0.00 82 1023.1
20260831190703 67 353 2.0 8.0 0.00 0.00 0.00 82 1023.1
20260831190603 67 354 2.0 8.0 0.00 0.00 0.00 83 1023.2
20260831190503 67 359 1.0 4.0 0.00 0.00 0.00 83 1022.9
20260831190403 67 359 2.0 4.0 0.00 0.00 0.00 83 1023.1
20260831190303 67 356 2.0 4.0 0.00 0.00 0.00 83 1023.1
20260831190224 67 357 2.0 4.0 0.00 0.00 0.00 83 1023.0
20260831190003 67 357 1.0 3.0 0.00 0.00 0.00 83 1023.0
20260831185924 67 357 1.0 3.0 0.00 0.00 0.00 83 1023.0
20260831185803 67 355 1.0 3.0 0.00 0.00 0.00 82 1023.1
20260831185703 67 359 1.0 3.0 0.00 0.00 0.00 82 1022.9
20260831185603 67 358 1.0 3.0 0.00 0.00 0.00 82 1022.9
20260831185503 67 358 1.0 3.0 0.00 0.00 0.00 82 1022.7
20260831185403 67 359 1.0 3.0 0.00 0.00 0.00 82 1023.1
20260831185306 67 6 1.0 2.0 0.00 0.00 0.00 82 1023.0
20260831185224 67 7 1.0 3.0 0.00 0.00 0.00 82 1023.0
20260831185103 67 7 1.0 3.0 0.00 0.00 0.00 82 1023.0
20260831185024 67 7 1.0 3.0 0.00 0.00 0.00 82 1023.0
20260831184903 67 7 1.0 3.0 0.00 0.00 0.00 82 1023.0
20260831184803 67 8 1.0 3.0 0.00 0.00 0.00 82 1022.8
20260831184703 67 5 1.0 3.0 0.00 0.00 0.00 82 1023.1
20260831184603 67 5 1.0 3.0 0.00 0.00 0.00 82 1023.1
20260831184503 67 5 1.0 3.0 0.00 0.00 0.00 82 1022.8
20260831184424 67 6 1.0 3.0 0.00 0.00 0.00 82 1023.0
20260831184303 67 3 1.0 3.0 0.00 0.00 0.00 82 1023.0
20260831184203 67 3 1.0 3.0 0.00 0.00 0.00 81 1022.9
20260831184103 67 1 1.0 3.0 0.00 0.00 0.00 82 1022.9
20260831184003 67 360 1.0 3.0 0.00 0.00 0.00 81 1022.9
20260831183903 67 358 1.0 3.0 0.00 0.00 0.00 81 1022.9
20260831183803 67 358 1.0 3.0 0.00 0.00 0.00 81 1022.8
20260831183703 67 355 1.0 3.0 0.00 0.00 0.00 81 1023.0
20260831183603 67 354 2.0 4.0 0.00 0.00 0.00 81 1022.8
20260831183503 67 354 2.0 4.0 0.00 0.00 0.00 81 1022.8
20260831183403 67 353 2.0 4.0 0.00 0.00 0.00 81 1022.9
20260831183303 67 356 2.0 4.0 0.00 0.00 0.00 81 1022.9
20260831183203 67 356 2.0 4.0 0.00 0.00 0.00 81 1022.9
20260831183103 67 356 2.0 4.0 0.00 0.00 0.00 81 1022.9
20260831183003 67 355 2.0 4.0 0.00 0.00 0.00 81 1023.0
20260831182903 67 355 2.0 4.0 0.00 0.00 0.00 80 1022.9
20260831182803 67 355 2.0 4.0 0.00 0.00 0.00 81 1023.0
20260831182703 67 358 2.0 4.0 0.00 0.00 0.00 81 1023.0
20260831182603 67 356 2.0 4.0 0.00 0.00 0.00 81 1022.8
20260831182506 67 357 2.0 4.0 0.00 0.00 0.00 81 1023.0
20260831182403 67 358 2.0 4.0 0.00 0.00 0.00 81 1022.9
20260831182305 67 355 2.0 4.0 0.00 0.00 0.00 81 1022.9
20260831182203 67 355 2.0 4.0 0.00 0.00 0.00 81 1022.7
20260831182103 67 354 3.0 4.0 0.00 0.00 0.00 81 1023.0
20260831182024 67 355 3.0 4.0 0.00 0.00 0.00 81 1022.8
20260831181903 67 357 2.0 4.0 0.00 0.00 0.00 81 1022.8
20260831181803 67 358 2.0 4.0 0.00 0.00 0.00 82 1023.0
20260831181724 67 355 2.0 4.0 0.00 0.00 0.00 82 1023.0
20260831181603 67 354 2.0 4.0 0.00 0.00 0.00 82 1023.1
20260831181503 67 354 2.0 4.0 0.00 0.00 0.00 82 1023.1
20260831181403 67 353 2.0 4.0 0.00 0.00 0.00 82 1023.1
20260831181303 67 352 2.0 4.0 0.00 0.00 0.00 82 1023.1
20260831181203 67 353 2.0 4.0 0.00 0.00 0.00 83 1023.0
20260831181103 67 354 2.0 4.0 0.00 0.00 0.00 83 1023.0
20260831181003 67 352 2.0 4.0 0.00 0.00 0.00 83 1022.9
20260831180903 67 351 2.0 4.0 0.00 0.00 0.00 83 1023.0
20260831180803 67 350 2.0 4.0 0.00 0.00 0.00 83 1023.1
20260831180703 67 350 2.0 4.0 0.00 0.00 0.00 83 1023.1
20260831180603 67 347 3.0 4.0 0.00 0.00 0.00 84 1023.0
20260831180503 67 349 3.0 4.0 0.00 0.00 0.00 84 1023.0
20260831180403 67 348 3.0 4.0 0.00 0.00 0.00 84 1023.0
20260831180303 67 351 3.0 4.0 0.00 0.00 0.00 83 1023.0
20260831180203 67 350 3.0 6.0 0.00 0.00 0.00 83 1023.0
20260831180003 67 349 3.0 6.0 0.00 0.00 0.00 83 1022.9
20260831175903 67 351 3.0 9.0 0.00 0.00 0.00 83 1022.9
20260831175803 67 350 3.0 9.0 0.00 0.00 0.00 83 1022.9
20260831175703 67 352 3.0 9.0 0.00 0.00 0.00 84 1022.8
20260831175608 67 351 3.0 9.0 0.00 0.00 0.00 84 1022.9
20260831175524 67 353 3.0 9.0 0.00 0.00 0.00 84 1022.9
20260831175424 67 354 3.0 9.0 0.00 0.00 0.00 84 1022.8
20260831175306 67 355 3.0 9.0 0.00 0.00 0.00 84 1022.9
20260831175245 67 350 3.0 9.0 0.00 0.00 0.00 84 1022.9
20260831175103 67 351 3.0 9.0 0.00 0.00 0.00 84 1022.9
20260831175024 67 349 3.0 9.0 0.00 0.00 0.00 84 1022.8
20260831174903 67 349 3.0 9.0 0.00 0.00 0.00 84 1022.8
20260831174803 67 346 3.0 7.0 0.00 0.00 0.00 84 1023.0
20260831174703 67 345 3.0 7.0 0.00 0.00 0.00 85 1023.0
20260831174635 67 345 3.0 7.0 0.00 0.00 0.00 85 1022.9
20260831174503 67 345 3.0 7.0 0.00 0.00 0.00 85 1022.8
20260831174403 67 346 3.0 7.0 0.00 0.00 0.00 85 1022.8
20260831174324 67 343 4.0 8.0 0.00 0.00 0.00 85 1022.8
20260831174203 67 343 4.0 8.0 0.00 0.00 0.00 85 1022.8
20260831174103 67 344 4.0 8.0 0.00 0.00 0.00 84 1022.8
20260831174003 67 343 4.0 8.0 0.00 0.00 0.00 84 1022.9
20260831173903 67 344 4.0 8.0 0.00 0.00 0.00 84 1022.9
20260831173803 67 346 4.0 8.0 0.00 0.00 0.00 84 1022.7
20260831173703 67 346 4.0 8.0 0.00 0.00 0.00 84 1022.9
20260831173603 67 347 4.0 8.0 0.00 0.00 0.00 84 1022.8
20260831173503 67 349 4.0 8.0 0.00 0.00 0.00 84 1022.8
20260831173403 67 345 4.0 8.0 0.00 0.00 0.00 84 1022.9
20260831173303 67 348 4.0 8.0 0.00 0.00 0.00 84 1022.8
20260831173203 67 351 3.0 7.0 0.00 0.00 0.00 84 1022.9
20260831173124 67 350 3.0 7.0 0.00 0.00 0.00 84 1022.9
20260831173024 67 360 3.0 7.0 0.00 0.00 0.00 84 1022.8
20260831172903 67 360 3.0 7.0 0.00 0.00 0.00 84 1022.9
20260831172803 67 354 3.0 7.0 0.00 0.00 0.00 84 1022.8
20260831172703 67 350 3.0 8.0 0.00 0.00 0.00 84 1022.8
20260831172603 67 352 3.0 8.0 0.00 0.00 0.00 84 1022.9
20260831172503 67 351 3.0 8.0 0.00 0.00 0.00 84 1022.7
20260831172424 67 355 3.0 8.0 0.00 0.00 0.00 84 1022.8
20260831172306 67 355 4.0 8.0 0.00 0.00 0.00 83 1022.7
20260831172203 67 355 3.0 8.0 0.00 0.00 0.00 83 1022.6
20260831172124 67 357 4.0 8.0 0.00 0.00 0.00 83 1022.7
20260831172003 67 354 4.0 8.0 0.00 0.00 0.00 83 1022.7
20260831171903 67 350 4.0 13.0 0.00 0.00 0.00 83 1022.8
20260831171803 67 352 4.0 13.0 0.00 0.00 0.00 83 1022.7
20260831171703 68 355 4.0 13.0 0.00 0.00 0.00 83 1022.6
20260831171603 68 358 4.0 13.0 0.00 0.00 0.00 83 1022.6
20260831171524 68 358 4.0 13.0 0.00 0.00 0.00 83 1022.6
20260831171403 68 358 4.0 13.0 0.00 0.00 0.00 83 1022.6
20260831171303 68 354 4.0 13.0 0.00 0.00 0.00 83 1022.6
20260831171224 68 354 4.0 13.0 0.00 0.00 0.00 83 1022.6
20260831171103 68 354 4.0 13.0 0.00 0.00 0.00 82 1022.8
20260831171024 68 351 4.0 13.0 0.00 0.00 0.00 81 1022.5
20260831170903 68 349 4.0 13.0 0.00 0.00 0.00 81 1022.7
20260831170824 68 353 3.0 9.0 0.00 0.00 0.00 81 1022.8
20260831170703 68 354 3.0 9.0 0.00 0.00 0.00 81 1022.8
20260831170603 68 356 3.0 9.0 0.00 0.00 0.00 81 1022.8
20260831170503 68 352 3.0 9.0 0.00 0.00 0.00 80 1022.7
20260831170403 68 349 3.0 9.0 0.00 0.00 0.00 80 1022.8
20260831170303 68 355 3.0 9.0 0.00 0.00 0.00 80 1022.8
20260831170203 69 357 3.0 9.0 0.00 0.00 0.00 80 1022.7
20260831170024 69 359 3.0 7.0 0.00 0.00 0.00 80 1022.6
20260831165903 69 359 4.0 8.0 0.00 0.00 0.00 79 1022.6
20260831165803 69 355 4.0 8.0 0.00 0.00 0.00 79 1022.8
20260831165703 69 356 4.0 8.0 0.00 0.00 0.00 79 1022.8
20260831165603 69 355 4.0 8.0 0.00 0.00 0.00 79 1022.7
20260831165503 69 353 4.0 8.0 0.00 0.00 0.00 79 1022.7
20260831165403 69 355 4.0 8.0 0.00 0.00 0.00 78 1022.7
20260831165324 69 354 4.0 8.0 0.00 0.00 0.00 78 1022.7
20260831165203 69 349 4.0 8.0 0.00 0.00 0.00 77 1022.8
20260831165103 69 348 4.0 8.0 0.00 0.00 0.00 77 1022.8
20260831165003 70 347 4.0 8.0 0.00 0.00 0.00 76 1022.7
20260831164903 70 344 4.0 8.0 0.00 0.00 0.00 75 1022.7
20260831164803 70 345 4.0 8.0 0.00 0.00 0.00 75 1022.7
20260831164703 71 345 4.0 8.0 0.00 0.00 0.00 75 1022.7
20260831164603 71 343 4.0 8.0 0.00 0.00 0.00 76 1022.7
20260831164503 70 345 4.0 8.0 0.00 0.00 0.00 77 1022.8
20260831164403 70 343 4.0 9.0 0.00 0.00 0.00 76 1022.8
20260831164303 70 339 4.0 9.0 0.00 0.00 0.00 76 1022.6
20260831164203 70 340 4.0 9.0 0.00 0.00 0.00 77 1022.7
20260831164103 70 341 4.0 9.0 0.00 0.00 0.00 76 1022.6
20260831164003 70 338 4.0 9.0 0.00 0.00 0.00 76 1022.7
20260831163924 70 339 4.0 9.0 0.00 0.00 0.00 76 1022.7
20260831163803 70 339 4.0 9.0 0.00 0.00 0.00 76 1022.6
20260831163703 70 337 5.0 9.0 0.00 0.00 0.00 75 1022.6
20260831163624 70 337 5.0 9.0 0.00 0.00 0.00 75 1022.6
20260831163503 70 340 5.0 10.0 0.00 0.00 0.00 75 1022.7
20260831163403 70 339 5.0 10.0 0.00 0.00 0.00 74 1022.8
20260831163303 70 339 5.0 10.0 0.00 0.00 0.00 74 1022.8
20260831163203 70 342 5.0 10.0 0.00 0.00 0.00 74 1022.8
20260831163103 70 343 5.0 10.0 0.00 0.00 0.00 74 1022.8
20260831163003 70 344 5.0 10.0 0.00 0.00 0.00 73 1022.6
20260831162903 70 346 4.0 10.0 0.00 0.00 0.00 73 1022.7
20260831162803 70 349 4.0 10.0 0.00 0.00 0.00 74 1022.7
20260831162703 70 352 4.0 10.0 0.00 0.00 0.00 74 1022.7
20260831162603 70 355 4.0 10.0 0.00 0.00 0.00 73 1022.7
20260831162524 71 353 4.0 10.0 0.00 0.00 0.00 72 1022.6
20260831162403 71 349 4.0 10.0 0.00 0.00 0.00 71 1022.7
20260831162305 72 352 4.0 8.0 0.00 0.00 0.00 71 1022.8
20260831162203 72 354 4.0 8.0 0.00 0.00 0.00 70 1022.7
20260831162103 72 352 3.0 7.0 0.00 0.00 0.00 70 1022.7
20260831162024 71 350 3.0 7.0 0.00 0.00 0.00 71 1022.9
20260831161903 71 351 4.0 7.0 0.00 0.00 0.00 72 1022.7
20260831161803 71 347 4.0 8.0 0.00 0.00 0.00 71 1022.7
20260831161703 71 346 4.0 8.0 0.00 0.00 0.00 71 1022.7
20260831161603 71 345 4.0 8.0 0.00 0.00 0.00 70 1022.6
20260831161503 71 350 4.0 8.0 0.00 0.00 0.00 71 1022.7
20260831161403 71 352 4.0 8.0 0.00 0.00 0.00 70 1022.7
20260831161324 71 350 4.0 8.0 0.00 0.00 0.00 69 1022.6
20260831161203 71 350 3.0 8.0 0.00 0.00 0.00 70 1022.8
20260831161103 72 352 3.0 8.0 0.00 0.00 0.00 71 1022.8
20260831161024 72 352 3.0 8.0 0.00 0.00 0.00 71 1022.8
20260831160903 72 355 3.0 8.0 0.00 0.00 0.00 70 1022.8
20260831160803 72 358 3.0 9.0 0.00 0.00 0.00 70 1022.8
20260831160703 72 354 4.0 9.0 0.00 0.00 0.00 72 1022.8
20260831160624 72 354 4.0 9.0 0.00 0.00 0.00 72 1022.8
20260831160503 72 350 4.0 9.0 0.00 0.00 0.00 71 1022.6
20260831160403 72 350 4.0 9.0 0.00 0.00 0.00 71 1022.6
20260831160303 71 350 4.0 9.0 0.00 0.00 0.00 71 1022.7
20260831160224 71 354 4.0 9.0 0.00 0.00 0.00 71 1022.7
20260831160124 71 356 5.0 10.0 0.00 0.00 0.00 71 1022.7
20260831160003 71 355 4.0 10.0 0.00 0.00 0.00 71 1022.9
20260831155903 71 351 4.0 10.0 0.00 0.00 0.00 71 1022.9
20260831155803 71 349 5.0 10.0 0.00 0.00 0.00 70 1022.7
20260831155724 71 353 4.0 10.0 0.00 0.00 0.00 70 1022.6
20260831155603 71 352 4.0 10.0 0.00 0.00 0.00 72 1022.7
20260831155503 71 349 4.0 10.0 0.00 0.00 0.00 71 1022.7
20260831155403 72 349 4.0 10.0 0.00 0.00 0.00 70 1022.9
20260831155324 72 350 4.0 10.0 0.00 0.00 0.00 71 1022.9
20260831155203 71 343 4.0 10.0 0.00 0.00 0.00 72 1022.7
20260831155124 71 341 4.0 9.0 0.00 0.00 0.00 72 1022.7
20260831155003 71 342 4.0 9.0 0.00 0.00 0.00 73 1022.9
20260831154924 71 338 4.0 9.0 0.00 0.00 0.00 72 1022.8
20260831154803 71 346 4.0 9.0 0.00 0.00 0.00 72 1022.9
20260831154703 71 340 4.0 9.0 0.00 0.00 0.00 71 1022.9
20260831154603 72 341 4.0 9.0 0.00 0.00 0.00 70 1022.8
20260831154503 72 341 4.0 9.0 0.00 0.00 0.00 70 1022.9
20260831154424 72 347 4.0 8.0 0.00 0.00 0.00 70 1022.8
20260831154303 72 346 4.0 8.0 0.00 0.00 0.00 71 1022.8
20260831154224 72 350 4.0 8.0 0.00 0.00 0.00 73 1022.8
20260831154103 71 344 4.0 9.0 0.00 0.00 0.00 72 1022.8
20260831154003 71 343 4.0 9.0 0.00 0.00 0.00 73 1022.9
20260831153924 72 349 4.0 9.0 0.00 0.00 0.00 72 1022.9
20260831153803 72 346 4.0 9.0 0.00 0.00 0.00 72 1022.9
20260831153724 72 338 4.0 9.0 0.00 0.00 0.00 73 1022.8
20260831153624 71 342 4.0 9.0 0.00 0.00 0.00 75 1022.8
20260831153503 71 342 4.0 9.0 0.00 0.00 0.00 74 1022.8
20260831153403 71 341 4.0 9.0 0.00 0.00 0.00 73 1022.8
20260831153303 72 337 4.0 9.0 0.00 0.00 0.00 72 1022.8
20260831153203 72 338 3.0 9.0 0.00 0.00 0.00 71 1022.9
20260831153103 72 355 4.0 13.0 0.00 0.00 0.00 71 1022.9
20260831153003 72 358 4.0 13.0 0.00 0.00 0.00 73 1022.8
20260831152903 72 359 4.0 13.0 0.00 0.00 0.00 73 1022.7
20260831152824 72 358 4.0 13.0 0.00 0.00 0.00 74 1022.8
20260831152724 72 3 4.0 13.0 0.00 0.00 0.00 73 1022.8
20260831152603 72 3 3.0 13.0 0.00 0.00 0.00 73 1022.8
20260831152503 71 3 4.0 13.0 0.00 0.00 0.00 74 1022.7
20260831152424 71 6 4.0 13.0 0.00 0.00 0.00 75 1022.9
20260831152324 71 7 4.0 13.0 0.00 0.00 0.00 75 1022.9
20260831152203 71 8 4.0 13.0 0.00 0.00 0.00 72 1022.8
20260831152103 71 6 4.0 9.0 0.00 0.00 0.00 74 1022.8
20260831152003 71 4 4.0 8.0 0.00 0.00 0.00 75 1022.8
20260831151903 71 1 4.0 8.0 0.00 0.00 0.00 75 1022.8
20260831151803 71 2 4.0 8.0 0.00 0.00 0.00 75 1022.9
20260831151703 71 1 4.0 8.0 0.00 0.00 0.00 74 1022.9
20260831151603 71 4 4.0 8.0 0.00 0.00 0.00 75 1022.9
20260831151524 71 6 4.0 8.0 0.00 0.00 0.00 74 1022.9
20260831151403 71 3 4.0 10.0 0.00 0.00 0.00 75 1023.1
20260831151324 71 3 5.0 11.0 0.00 0.00 0.00 74 1023.0
20260831151203 71 2 5.0 11.0 0.00 0.00 0.00 74 1022.8
20260831151103 71 3 5.0 11.0 0.00 0.00 0.00 75 1022.8
20260831151003 71 4 5.0 11.0 0.00 0.00 0.00 76 1022.9
20260831150903 71 7 4.0 11.0 0.00 0.00 0.00 77 1023.2
20260831150803 71 5 4.0 11.0 0.00 0.00 0.00 76 1023.0
20260831150724 71 6 4.0 11.0 0.00 0.00 0.00 77 1023.0
20260831150603 71 4 4.0 11.0 0.00 0.00 0.00 77 1023.0
20260831150524 71 3 4.0 11.0 0.00 0.00 0.00 76 1023.1
20260831150403 71 6 4.0 11.0 0.00 0.00 0.00 75 1023.0
20260831150303 72 7 4.0 11.0 0.00 0.00 0.00 75 1023.0
20260831150203 72 5 3.0 8.0 0.00 0.00 0.00 75 1022.9
20260831150003 72 11 3.0 7.0 0.00 0.00 0.00 75 1023.0
20260831145903 72 8 3.0 7.0 0.00 0.00 0.00 75 1023.0
20260831145824 72 8 4.0 7.0 0.00 0.00 0.00 74 1023.1
20260831145703 72 8 4.0 7.0 0.00 0.00 0.00 75 1023.2
20260831145603 72 4 4.0 7.0 0.00 0.00 0.00 75 1023.2
20260831145503 72 5 3.0 7.0 0.00 0.00 0.00 74 1023.2
20260831145403 72 7 3.0 7.0 0.00 0.00 0.00 74 1023.3
20260831145306 72 3 3.0 7.0 0.00 0.00 0.00 75 1023.1
20260831145203 72 3 3.0 7.0 0.00 0.00 0.00 74 1023.0
20260831145124 72 6 3.0 7.0 0.00 0.00 0.00 73 1023.0
20260831145003 72 5 3.0 7.0 0.00 0.00 0.00 72 1023.1
20260831144903 72 357 2.0 7.0 0.00 0.00 0.00 71 1023.1
20260831144803 73 359 2.0 7.0 0.00 0.00 0.00 70 1022.9
20260831144703 73 358 2.0 7.0 0.00 0.00 0.00 70 1022.9
20260831144603 73 358 2.0 7.0 0.00 0.00 0.00 70 1023.0
20260831144503 73 4 2.0 7.0 0.00 0.00 0.00 70 1023.0
20260831144403 73 355 2.0 7.0 0.00 0.00 0.00 70 1023.3
20260831144303 73 351 2.0 7.0 0.00 0.00 0.00 69 1023.3
20260831144203 73 347 2.0 7.0 0.00 0.00 0.00 71 1023.2
20260831144103 73 346 3.0 7.0 0.00 0.00 0.00 70 1023.2
20260831144024 73 346 3.0 7.0 0.00 0.00 0.00 70 1023.0
20260831143903 73 344 3.0 7.0 0.00 0.00 0.00 70 1023.0
20260831143803 73 341 3.0 7.0 0.00 0.00 0.00 69 1023.2
20260831143703 73 343 3.0 7.0 0.00 0.00 0.00 66 1023.1
20260831143603 73 343 3.0 7.0 0.00 0.00 0.00 69 1023.2
20260831143503 73 345 3.0 7.0 0.00 0.00 0.00 70 1023.2
20260831143403 72 347 3.0 7.0 0.00 0.00 0.00 71 1023.3
20260831143303 72 348 3.0 7.0 0.00 0.00 0.00 70 1023.2
20260831143203 72 349 4.0 8.0 0.00 0.00 0.00 70 1023.3
20260831143103 72 348 4.0 8.0 0.00 0.00 0.00 69 1023.3
20260831143003 72 350 4.0 8.0 0.00 0.00 0.00 68 1023.2
20260831142903 72 351 4.0 8.0 0.00 0.00 0.00 68 1023.3
20260831142803 72 357 4.0 8.0 0.00 0.00 0.00 66 1023.3
20260831142703 72 354 3.0 8.0 0.00 0.00 0.00 68 1023.3
20260831142603 72 354 3.0 8.0 0.00 0.00 0.00 68 1023.1
20260831142503 72 355 4.0 8.0 0.00 0.00 0.00 68 1023.3
20260831142423 72 2 4.0 10.0 0.00 0.00 0.00 68 1023.3
20260831142323 72 3 4.0 10.0 0.00 0.00 0.00 67 1023.3
20260831142203 73 3 4.0 10.0 0.00 0.00 0.00 67 1023.5
20260831142103 72 2 5.0 10.0 0.00 0.00 0.00 67 1023.2
20260831142002 72 360 5.0 10.0 0.00 0.00 0.00 68 1023.5
20260831141902 72 1 5.0 10.0 0.00 0.00 0.00 67 1023.7
20260831141802 72 1 5.0 10.0 0.00 0.00 0.00 67 1023.7
20260831141702 72 1 4.0 10.0 0.00 0.00 0.00 67 1023.3
20260831141602 72 4 4.0 10.0 0.00 0.00 0.00 68 1023.5
20260831141503 72 1 4.0 10.0 0.00 0.00 0.00 67 1023.3
20260831141403 72 359 4.0 10.0 0.00 0.00 0.00 67 1023.6
20260831141324 72 349 4.0 10.0 0.00 0.00 0.00 67 1023.5
20260831141224 73 347 4.0 10.0 0.00 0.00 0.00 65 1023.5
20260831141102 73 345 4.0 10.0 0.00 0.00 0.00 64 1023.5
20260831141003 73 347 4.0 10.0 0.00 0.00 0.00 65 1023.6
20260831140902 73 347 4.0 10.0 0.00 0.00 0.00 66 1023.5
20260831140802 73 347 4.0 10.0 0.00 0.00 0.00 67 1023.7
20260831140703 72 347 4.0 10.0 0.00 0.00 0.00 67 1023.7
20260831140602 72 348 5.0 10.0 0.00 0.00 0.00 67 1023.3
20260831140523 72 353 5.0 10.0 0.00 0.00 0.00 66 1023.5
20260831140403 72 353 5.0 10.0 0.00 0.00 0.00 65 1023.7
20260831140303 72 359 5.0 10.0 0.00 0.00 0.00 65 1023.6
20260831140202 72 358 4.0 10.0 0.00 0.00 0.00 65 1023.3
20260831140124 73 360 4.0 10.0 0.00 0.00 0.00 63 1023.6
20260831140003 73 3 4.0 8.0 0.00 0.00 0.00 64 1023.5
20260831135902 73 360 4.0 8.0 0.00 0.00 0.00 64 1023.7
20260831135802 73 1 4.0 8.0 0.00 0.00 0.00 65 1023.5
20260831135702 73 360 4.0 9.0 0.00 0.00 0.00 64 1023.5
20260831135603 73 360 4.0 9.0 0.00 0.00 0.00 64 1023.5
20260831135502 73 1 4.0 9.0 0.00 0.00 0.00 64 1023.6
20260831135403 73 359 4.0 9.0 0.00 0.00 0.00 65 1023.5
20260831135306 73 359 4.0 9.0 0.00 0.00 0.00 64 1023.6
20260831135203 73 355 4.0 9.0 0.00 0.00 0.00 66 1023.5
20260831135102 73 354 5.0 9.0 0.00 0.00 0.00 66 1023.6
20260831135002 72 356 5.0 9.0 0.00 0.00 0.00 67 1023.6
20260831134924 72 356 5.0 9.0 0.00 0.00 0.00 66 1023.3
20260831134803 72 357 4.0 9.0 0.00 0.00 0.00 65 1023.5
20260831134702 72 356 4.0 9.0 0.00 0.00 0.00 67 1023.5
20260831134602 72 355 4.0 8.0 0.00 0.00 0.00 67 1023.6
20260831134524 72 349 4.0 8.0 0.00 0.00 0.00 68 1023.5
20260831134402 72 348 4.0 8.0 0.00 0.00 0.00 67 1023.6
20260831134323 73 347 5.0 8.0 0.00 0.00 0.00 65 1023.5
20260831134203 73 351 4.0 8.0 0.00 0.00 0.00 66 1023.5
20260831134102 73 355 5.0 8.0 0.00 0.00 0.00 66 1023.3
20260831134003 73 352 5.0 8.0 0.00 0.00 0.00 66 1023.7
20260831133902 73 349 5.0 8.0 0.00 0.00 0.00 67 1023.6
20260831133803 73 349 5.0 8.0 0.00 0.00 0.00 65 1023.5
20260831133703 73 350 5.0 8.0 0.00 0.00 0.00 66 1023.5
20260831133603 73 347 5.0 8.0 0.00 0.00 0.00 67 1023.5
20260831133503 72 351 5.0 8.0 0.00 0.00 0.00 66 1023.5
20260831133403 72 351 5.0 8.0 0.00 0.00 0.00 66 1023.5
20260831133303 72 349 5.0 8.0 0.00 0.00 0.00 66 1023.5
20260831133203 72 349 5.0 8.0 0.00 0.00 0.00 66 1023.5
20260831133102 72 346 5.0 8.0 0.00 0.00 0.00 66 1023.6
20260831133002 72 345 5.0 8.0 0.00 0.00 0.00 66 1023.3
20260831132903 72 345 5.0 9.0 0.00 0.00 0.00 66 1023.7
20260831132803 72 344 5.0 10.0 0.00 0.00 0.00 66 1023.5
20260831132702 72 345 6.0 10.0 0.00 0.00 0.00 67 1023.5
20260831132603 72 346 6.0 10.0 0.00 0.00 0.00 66 1023.5
20260831132503 72 348 5.0 10.0 0.00 0.00 0.00 65 1023.6
20260831132402 72 349 5.0 10.0 0.00 0.00 0.00 67 1023.3
20260831132306 72 351 6.0 10.0 0.00 0.00 0.00 67 1023.3
20260831132224 72 351 5.0 10.0 0.00 0.00 0.00 66 1023.5
20260831132102 72 352 5.0 10.0 0.00 0.00 0.00 68 1023.3
20260831132002 72 353 5.0 10.0 0.00 0.00 0.00 66 1023.5
20260831131903 72 354 5.0 10.0 0.00 0.00 0.00 66 1023.5
20260831131824 72 360 4.0 9.0 0.00 0.00 0.00 67 1023.5
20260831131703 72 1 4.0 9.0 0.00 0.00 0.00 66 1023.6
20260831131603 73 358 4.0 9.0 0.00 0.00 0.00 65 1023.5
20260831131502 73 359 4.0 9.0 0.00 0.00 0.00 66 1023.5
20260831131403 73 351 3.0 9.0 0.00 0.00 0.00 66 1023.5
20260831131302 73 350 3.0 9.0 0.00 0.00 0.00 66 1023.8
20260831131202 73 351 3.0 8.0 0.00 0.00 0.00 66 1023.6
20260831131123 73 351 3.0 8.0 0.00 0.00 0.00 66 1023.6
20260831131003 73 346 3.0 8.0 0.00 0.00 0.00 66 1023.6
20260831130924 73 346 4.0 9.0 0.00 0.00 0.00 66 1023.6
20260831130803 73 344 4.0 9.0 0.00 0.00 0.00 65 1023.6
20260831130702 73 342 3.0 9.0 0.00 0.00 0.00 66 1023.6
20260831130603 73 344 3.0 9.0 0.00 0.00 0.00 65 1023.3
20260831130503 73 343 3.0 9.0 0.00 0.00 0.00 64 1023.5
20260831130403 73 350 3.0 9.0 0.00 0.00 0.00 64 1023.7
20260831130302 73 348 3.0 9.0 0.00 0.00 0.00 65 1023.7
20260831130223 73 346 3.0 9.0 0.00 0.00 0.00 64 1023.6
20260831130003 73 349 3.0 9.0 0.00 0.00 0.00 66 1023.6
20260831125903 73 349 4.0 9.0 0.00 0.00 0.00 64 1023.6
20260831125802 73 348 3.0 7.0 0.00 0.00 0.00 64 1023.5
20260831125703 73 347 3.0 7.0 0.00 0.00 0.00 67 1023.6
20260831125603 73 347 3.0 7.0 0.00 0.00 0.00 65 1023.7
20260831125503 73 344 4.0 7.0 0.00 0.00 0.00 64 1023.7
20260831125403 73 341 4.0 8.0 0.00 0.00 0.00 64 1023.6
20260831125306 73 346 4.0 8.0 0.00 0.00 0.00 63 1023.7
20260831125203 73 345 4.0 8.0 0.00 0.00 0.00 65 1023.6
20260831125103 73 344 4.0 8.0 0.00 0.00 0.00 63 1023.6
20260831125003 73 344 4.0 8.0 0.00 0.00 0.00 64 1023.8
20260831124902 73 343 4.0 8.0 0.00 0.00 0.00 63 1023.8
20260831124802 73 344 4.0 8.0 0.00 0.00 0.00 64 1023.8
20260831124702 74 347 4.0 8.0 0.00 0.00 0.00 64 1023.8
20260831124603 74 346 5.0 8.0 0.00 0.00 0.00 63 1023.8
20260831124503 74 346 4.0 8.0 0.00 0.00 0.00 63 1023.7
20260831124403 74 348 4.0 7.0 0.00 0.00 0.00 63 1023.9
20260831124303 74 346 4.0 7.0 0.00 0.00 0.00 64 1023.7
20260831124203 74 345 4.0 7.0 0.00 0.00 0.00 64 1023.6
20260831124103 74 347 3.0 7.0 0.00 0.00 0.00 63 1023.6
20260831124003 74 340 3.0 7.0 0.00 0.00 0.00 64 1023.7
20260831123902 73 338 3.0 7.0 0.00 0.00 0.00 66 1023.5
20260831123803 73 338 3.0 7.0 0.00 0.00 0.00 66 1023.5
20260831123724 73 338 3.0 7.0 0.00 0.00 0.00 65 1023.7
20260831123602 74 338 3.0 7.0 0.00 0.00 0.00 64 1023.8
20260831123503 74 338 3.0 6.0 0.00 0.00 0.00 63 1023.5
20260831123402 73 340 3.0 6.0 0.00 0.00 0.00 65 1023.7
20260831123303 73 339 3.0 6.0 0.00 0.00 0.00 66 1023.7
20260831123203 72 337 3.0 7.0 0.00 0.00 0.00 66 1023.7
20260831123102 72 341 3.0 7.0 0.00 0.00 0.00 66 1023.7
20260831123003 72 339 3.0 7.0 0.00 0.00 0.00 66 1023.9
20260831122903 72 346 3.0 7.0 0.00 0.00 0.00 65 1023.7
20260831122803 72 351 3.0 7.0 0.00 0.00 0.00 67 1023.6
20260831122702 72 351 3.0 7.0 0.00 0.00 0.00 66 1023.6
20260831122603 72 350 3.0 7.0 0.00 0.00 0.00 68 1023.7
20260831122503 72 351 3.0 7.0 0.00 0.00 0.00 67 1023.8
20260831122403 72 352 3.0 7.0 0.00 0.00 0.00 66 1023.8
20260831122305 72 352 3.0 7.0 0.00 0.00 0.00 66 1023.8
20260831122202 72 355 3.0 6.0 0.00 0.00 0.00 66 1023.9
20260831122103 72 357 3.0 6.0 0.00 0.00 0.00 67 1023.8
20260831122003 72 355 3.0 8.0 0.00 0.00 0.00 67 1023.8
20260831121924 72 355 3.0 8.0 0.00 0.00 0.00 66 1023.8
20260831121803 72 354 3.0 8.0 0.00 0.00 0.00 66 1023.9
20260831121703 73 353 3.0 8.0 0.00 0.00 0.00 64 1024.0
20260831121602 74 352 3.0 8.0 0.00 0.00 0.00 63 1023.8
20260831121503 74 352 3.0 8.0 0.00 0.00 0.00 63 1023.9
20260831121403 74 350 2.0 8.0 0.00 0.00 0.00 65 1023.7
20260831121303 74 350 3.0 8.0 0.00 0.00 0.00 64 1023.9
20260831121203 75 350 2.0 8.0 0.00 0.00 0.00 64 1023.9
20260831121103 75 350 2.0 8.0 0.00 0.00 0.00 62 1024.0
20260831121003 76 355 2.0 6.0 0.00 0.00 0.00 62 1023.8
20260831120903 76 351 2.0 6.0 0.00 0.00 0.00 62 1023.8
20260831120803 75 348 2.0 6.0 0.00 0.00 0.00 64 1024.0
20260831120703 75 347 2.0 6.0 0.00 0.00 0.00 62 1024.0
20260831120603 75 347 2.0 6.0 0.00 0.00 0.00 62 1024.0
20260831120503 75 339 2.0 6.0 0.00 0.00 0.00 64 1023.8
20260831120403 75 339 2.0 6.0 0.00 0.00 0.00 64 1023.8
20260831120302 74 342 2.0 6.0 0.00 0.00 0.00 60 1023.8
20260831120203 74 338 2.0 6.0 0.00 0.00 0.00 63 1024.0
20260831120024 73 338 2.0 6.0 0.00 0.00 0.00 62 1023.8
20260831115903 73 338 2.0 6.0 0.00 0.00 0.00 62 1023.9
20260831115803 74 336 2.0 6.0 0.00 0.00 0.00 63 1024.0
20260831115703 74 340 2.0 6.0 0.00 0.00 0.00 61 1023.8
20260831115624 75 345 2.0 6.0 0.00 0.00 0.00 62 1024.0
20260831115503 75 350 2.0 6.0 0.00 0.00 0.00 62 1024.0
20260831115403 75 357 2.0 6.0 0.00 0.00 0.00 62 1023.8
20260831115305 75 356 2.0 6.0 0.00 0.00 0.00 60 1024.1
20260831115224 75 357 2.0 6.0 0.00 0.00 0.00 61 1023.9
20260831115103 75 359 2.0 6.0 0.00 0.00 0.00 62 1023.9
20260831115003 74 359 2.0 6.0 0.00 0.00 0.00 62 1023.8
20260831114903 74 2 2.0 6.0 0.00 0.00 0.00 65 1024.0
20260831114803 73 6 2.0 6.0 0.00 0.00 0.00 64 1024.0
20260831114724 73 360 2.0 6.0 0.00 0.00 0.00 63 1024.0
20260831114603 73 359 2.0 6.0 0.00 0.00 0.00 63 1023.8